Wetterdaten: Freitag, 08.07.2016
Datum Zeit Temp. A. Feuchte A. Luftdruck Regen Wind Richtung Richtung Sonnenschein ET UV Solar Taupunkt Windchill Windben Empfang
08.07.2016 00:00 15,2 C 76 % 1018,7 hPa 0,0 l/m 2,7 km/h (1 Bft) W-SW 238 0 min 0,000 mm 0,0 UV-I 0 W/m 11,0 C 15,2 C 3,2 km/h (1 Bft) 100,00 %
08.07.2016 00:02 15,2 C 75 % 1018,7 hPa 0,0 l/m 2,6 km/h (1 Bft) W-SW 238 0 min 0,000 mm 0,0 UV-I 0 W/m 10,8 C 15,2 C 4,8 km/h (1 Bft) 100,00 %
08.07.2016 00:04 15,2 C 76 % 1018,7 hPa 0,0 l/m 2,8 km/h (1 Bft) W-SW 238 0 min 0,000 mm 0,0 UV-I 0 W/m 11,0 C 15,2 C 4,8 km/h (1 Bft) 100,00 %
08.07.2016 00:06 15,2 C 76 % 1018,7 hPa 0,0 l/m 3,7 km/h (1 Bft) SW 236 0 min 0,000 mm 0,0 UV-I 0 W/m 11,0 C 15,2 C 4,8 km/h (1 Bft) 100,00 %
08.07.2016 00:08 15,1 C 77 % 1018,7 hPa 0,0 l/m 2,9 km/h (1 Bft) SW 236 0 min 0,000 mm 0,0 UV-I 0 W/m 11,1 C 15,1 C 4,8 km/h (1 Bft) 100,00 %
08.07.2016 00:10 15,1 C 77 % 1018,7 hPa 0,0 l/m 3,3 km/h (1 Bft) SW 236 0 min 0,000 mm 0,0 UV-I 0 W/m 11,1 C 15,1 C 4,8 km/h (1 Bft) 100,00 %
08.07.2016 00:12 14,9 C 78 % 1018,7 hPa 0,0 l/m 3,3 km/h (1 Bft) SW 233 0 min 0,000 mm 0,0 UV-I 0 W/m 11,1 C 14,9 C 4,8 km/h (1 Bft) 100,00 %
08.07.2016 00:14 14,9 C 78 % 1018,7 hPa 0,0 l/m 4,0 km/h (1 Bft) SW 232 0 min 0,000 mm 0,0 UV-I 0 W/m 11,1 C 14,9 C 4,8 km/h (1 Bft) 100,00 %
08.07.2016 00:16 14,9 C 78 % 1018,7 hPa 0,0 l/m 3,5 km/h (1 Bft) SW 232 0 min 0,000 mm 0,0 UV-I 0 W/m 11,1 C 14,9 C 4,8 km/h (1 Bft) 100,00 %
08.07.2016 00:18 14,9 C 78 % 1018,7 hPa 0,0 l/m 3,0 km/h (1 Bft) SW 232 0 min 0,000 mm 0,0 UV-I 0 W/m 11,1 C 14,9 C 4,8 km/h (1 Bft) 100,00 %
08.07.2016 00:20 14,9 C 79 % 1018,7 hPa 0,0 l/m 4,1 km/h (1 Bft) S-SW 213 0 min 0,000 mm 0,0 UV-I 0 W/m 11,3 C 14,9 C 6,4 km/h (2 Bft) 100,00 %
08.07.2016 00:22 14,9 C 79 % 1018,7 hPa 0,0 l/m 3,4 km/h (1 Bft) S-SW 213 0 min 0,000 mm 0,0 UV-I 0 W/m 11,3 C 14,9 C 4,8 km/h (1 Bft) 100,00 %
08.07.2016 00:24 14,9 C 78 % 1018,7 hPa 0,0 l/m 3,4 km/h (1 Bft) S-SW 212 0 min 0,000 mm 0,0 UV-I 0 W/m 11,1 C 14,9 C 4,8 km/h (1 Bft) 100,00 %
08.07.2016 00:26 14,9 C 78 % 1018,7 hPa 0,0 l/m 4,2 km/h (1 Bft) S-SW 200 0 min 0,000 mm 0,0 UV-I 0 W/m 11,1 C 14,9 C 6,4 km/h (2 Bft) 100,00 %
08.07.2016 00:28 14,9 C 78 % 1018,7 hPa 0,0 l/m 4,4 km/h (1 Bft) S-SW 198 0 min 0,000 mm 0,0 UV-I 0 W/m 11,1 C 14,9 C 6,4 km/h (2 Bft) 100,00 %
08.07.2016 00:30 15,0 C 78 % 1018,7 hPa 0,0 l/m 4,2 km/h (1 Bft) S-SW 197 0 min 0,000 mm 0,0 UV-I 0 W/m 11,2 C 15,0 C 6,4 km/h (2 Bft) 98,00 %
08.07.2016 00:32 15,0 C 78 % 1018,7 hPa 0,0 l/m 4,2 km/h (1 Bft) S-SW 196 0 min 0,000 mm 0,0 UV-I 0 W/m 11,2 C 15,0 C 4,8 km/h (1 Bft) 100,00 %
08.07.2016 00:34 15,0 C 78 % 1018,7 hPa 0,0 l/m 4,7 km/h (1 Bft) S 182 0 min 0,000 mm 0,0 UV-I 0 W/m 11,2 C 15,0 C 6,4 km/h (2 Bft) 100,00 %
08.07.2016 00:36 15,0 C 78 % 1018,7 hPa 0,0 l/m 4,9 km/h (1 Bft) S 184 0 min 0,000 mm 0,0 UV-I 0 W/m 11,2 C 15,0 C 6,4 km/h (2 Bft) 100,00 %
08.07.2016 00:38 15,0 C 78 % 1018,7 hPa 0,0 l/m 5,1 km/h (1 Bft) S 186 0 min 0,000 mm 0,0 UV-I 0 W/m 11,2 C 15,0 C 6,4 km/h (2 Bft) 97,37 %
08.07.2016 00:40 15,0 C 79 % 1018,6 hPa 0,0 l/m 4,6 km/h (1 Bft) S 184 0 min 0,000 mm 0,0 UV-I 0 W/m 11,4 C 15,0 C 6,4 km/h (2 Bft) 100,00 %
08.07.2016 00:42 14,9 C 79 % 1018,6 hPa 0,0 l/m 3,6 km/h (1 Bft) S 184 0 min 0,000 mm 0,0 UV-I 0 W/m 11,3 C 14,9 C 4,8 km/h (1 Bft) 96,23 %
08.07.2016 00:44 14,9 C 79 % 1018,5 hPa 0,0 l/m 3,5 km/h (1 Bft) S 184 0 min 0,000 mm 0,0 UV-I 0 W/m 11,3 C 14,9 C 4,8 km/h (1 Bft) 97,37 %
08.07.2016 00:46 14,9 C 79 % 1018,6 hPa 0,0 l/m 3,3 km/h (1 Bft) S 184 0 min 0,000 mm 0,0 UV-I 0 W/m 11,3 C 14,9 C 4,8 km/h (1 Bft) 97,87 %
08.07.2016 00:48 14,9 C 79 % 1018,5 hPa 0,0 l/m 3,4 km/h (1 Bft) S 184 0 min 0,000 mm 0,0 UV-I 0 W/m 11,3 C 14,9 C 4,8 km/h (1 Bft) 98,00 %
08.07.2016 00:50 14,8 C 79 % 1018,6 hPa 0,0 l/m 3,2 km/h (1 Bft) S 184 0 min 0,000 mm 0,0 UV-I 0 W/m 11,2 C 14,8 C 4,8 km/h (1 Bft) 96,23 %
08.07.2016 00:52 14,8 C 80 % 1018,6 hPa 0,0 l/m 3,5 km/h (1 Bft) S 184 0 min 0,000 mm 0,0 UV-I 0 W/m 11,4 C 14,8 C 4,8 km/h (1 Bft) 97,56 %
08.07.2016 00:54 14,8 C 79 % 1018,6 hPa 0,0 l/m 3,9 km/h (1 Bft) S 184 0 min 0,000 mm 0,0 UV-I 0 W/m 11,2 C 14,8 C 4,8 km/h (1 Bft) 98,11 %
08.07.2016 00:56 14,8 C 79 % 1018,6 hPa 0,0 l/m 4,6 km/h (1 Bft) S-SW 201 0 min 0,000 mm 0,0 UV-I 0 W/m 11,2 C 14,8 C 8,0 km/h (2 Bft) 97,37 %
08.07.2016 00:58 14,8 C 79 % 1018,5 hPa 0,0 l/m 4,2 km/h (1 Bft) S-SW 201 0 min 0,000 mm 0,0 UV-I 0 W/m 11,2 C 14,8 C 6,4 km/h (2 Bft) 96,00 %
08.07.2016 01:00 14,8 C 79 % 1018,6 hPa 0,0 l/m 4,7 km/h (1 Bft) S-SW 194 0 min 0,025 mm 0,0 UV-I 0 W/m 11,2 C 14,8 C 6,4 km/h (2 Bft) 95,74 %
08.07.2016 01:02 14,7 C 80 % 1018,6 hPa 0,0 l/m 5,3 km/h (1 Bft) S 190 0 min 0,000 mm 0,0 UV-I 0 W/m 11,3 C 14,7 C 6,4 km/h (2 Bft) 98,00 %
08.07.2016 01:04 14,8 C 79 % 1018,6 hPa 0,0 l/m 5,4 km/h (1 Bft) S 176 0 min 0,000 mm 0,0 UV-I 0 W/m 11,2 C 14,8 C 8,0 km/h (2 Bft) 96,00 %
08.07.2016 01:06 14,8 C 79 % 1018,6 hPa 0,0 l/m 5,4 km/h (1 Bft) S 191 0 min 0,000 mm 0,0 UV-I 0 W/m 11,2 C 14,8 C 8,0 km/h (2 Bft) 100,00 %
08.07.2016 01:08 14,8 C 79 % 1018,6 hPa 0,0 l/m 4,9 km/h (1 Bft) S-SW 194 0 min 0,000 mm 0,0 UV-I 0 W/m 11,2 C 14,8 C 6,4 km/h (2 Bft) 95,74 %
08.07.2016 01:10 14,8 C 79 % 1018,6 hPa 0,0 l/m 4,4 km/h (1 Bft) S-SW 194 0 min 0,000 mm 0,0 UV-I 0 W/m 11,2 C 14,8 C 6,4 km/h (2 Bft) 97,73 %
08.07.2016 01:12 14,8 C 79 % 1018,6 hPa 0,0 l/m 3,5 km/h (1 Bft) S-SW 194 0 min 0,000 mm 0,0 UV-I 0 W/m 11,2 C 14,8 C 4,8 km/h (1 Bft) 96,23 %
08.07.2016 01:14 14,8 C 79 % 1018,6 hPa 0,0 l/m 2,7 km/h (1 Bft) S-SW 193 0 min 0,000 mm 0,0 UV-I 0 W/m 11,2 C 14,8 C 4,8 km/h (1 Bft) 97,96 %
08.07.2016 01:16 14,8 C 79 % 1018,6 hPa 0,0 l/m 2,3 km/h (1 Bft) S-SW 193 0 min 0,000 mm 0,0 UV-I 0 W/m 11,2 C 14,8 C 3,2 km/h (1 Bft) 95,12 %
08.07.2016 01:18 14,8 C 80 % 1018,6 hPa 0,0 l/m 1,6 km/h (1 Bft) S-SW 193 0 min 0,000 mm 0,0 UV-I 0 W/m 11,4 C 14,8 C 3,2 km/h (1 Bft) 100,00 %
08.07.2016 01:20 14,7 C 80 % 1018,6 hPa 0,0 l/m 0,1 km/h (0 Bft) S-SW 193 0 min 0,000 mm 0,0 UV-I 0 W/m 11,3 C 14,7 C 1,6 km/h (1 Bft) 100,00 %
08.07.2016 01:22 14,6 C 80 % 1018,6 hPa 0,0 l/m 0,0 km/h (0 Bft) S-SW 194 0 min 0,000 mm 0,0 UV-I 0 W/m 11,2 C 14,6 C 0,0 km/h (0 Bft) 96,23 %
08.07.2016 01:24 14,4 C 81 % 1018,6 hPa 0,0 l/m 0,0 km/h (0 Bft) S-SW 193 0 min 0,000 mm 0,0 UV-I 0 W/m 11,2 C 14,4 C 0,0 km/h (0 Bft) 100,00 %
08.07.2016 01:26 14,4 C 81 % 1018,6 hPa 0,0 l/m 0,0 km/h (0 Bft) S-SW 193 0 min 0,000 mm 0,0 UV-I 0 W/m 11,2 C 14,4 C 0,0 km/h (0 Bft) 100,00 %
08.07.2016 01:28 14,2 C 82 % 1018,6 hPa 0,0 l/m 0,0 km/h (0 Bft) S-SW 193 0 min 0,000 mm 0,0 UV-I 0 W/m 11,2 C 14,2 C 0,0 km/h (0 Bft) 100,00 %
08.07.2016 01:30 14,1 C 82 % 1018,6 hPa 0,0 l/m 1,1 km/h (1 Bft) S-SW 194 0 min 0,000 mm 0,0 UV-I 0 W/m 11,1 C 14,1 C 3,2 km/h (1 Bft) 98,00 %
08.07.2016 01:32 13,9 C 83 % 1018,7 hPa 0,0 l/m 2,1 km/h (1 Bft) S-SW 194 0 min 0,000 mm 0,0 UV-I 0 W/m 11,1 C 13,9 C 3,2 km/h (1 Bft) 100,00 %
08.07.2016 01:34 13,7 C 84 % 1018,6 hPa 0,0 l/m 1,4 km/h (1 Bft) S-SW 194 0 min 0,000 mm 0,0 UV-I 0 W/m 11,0 C 13,7 C 1,6 km/h (1 Bft) 98,00 %
08.07.2016 01:36 13,5 C 85 % 1018,6 hPa 0,0 l/m 0,8 km/h (0 Bft) S-SW 194 0 min 0,000 mm 0,0 UV-I 0 W/m 11,0 C 13,5 C 1,6 km/h (1 Bft) 100,00 %
08.07.2016 01:38 13,3 C 86 % 1018,5 hPa 0,0 l/m 0,0 km/h (0 Bft) S-SW 194 0 min 0,000 mm 0,0 UV-I 0 W/m 11,0 C 13,3 C 0,0 km/h (0 Bft) 100,00 %
08.07.2016 01:40 13,3 C 86 % 1018,5 hPa 0,0 l/m 0,0 km/h (0 Bft) S-SW 194 0 min 0,000 mm 0,0 UV-I 0 W/m 11,0 C 13,3 C 0,0 km/h (0 Bft) 100,00 %
08.07.2016 01:42 13,4 C 86 % 1018,5 hPa 0,0 l/m 0,2 km/h (0 Bft) S-SW 194 0 min 0,000 mm 0,0 UV-I 0 W/m 11,1 C 13,4 C 1,6 km/h (1 Bft) 100,00 %
08.07.2016 01:44 13,4 C 86 % 1018,5 hPa 0,0 l/m 0,0 km/h (0 Bft) S-SW 194 0 min 0,000 mm 0,0 UV-I 0 W/m 11,1 C 13,4 C 1,6 km/h (1 Bft) 100,00 %
08.07.2016 01:46 13,5 C 85 % 1018,5 hPa 0,0 l/m 1,4 km/h (1 Bft) S-SW 193 0 min 0,000 mm 0,0 UV-I 0 W/m 11,0 C 13,5 C 3,2 km/h (1 Bft) 100,00 %
08.07.2016 01:48 13,6 C 86 % 1018,5 hPa 0,0 l/m 1,8 km/h (1 Bft) S-SW 193 0 min 0,000 mm 0,0 UV-I 0 W/m 11,3 C 13,6 C 3,2 km/h (1 Bft) 100,00 %
08.07.2016 01:50 13,6 C 85 % 1018,5 hPa 0,0 l/m 1,3 km/h (1 Bft) S-SW 193 0 min 0,000 mm 0,0 UV-I 0 W/m 11,1 C 13,6 C 3,2 km/h (1 Bft) 100,00 %
08.07.2016 01:52 13,6 C 85 % 1018,5 hPa 0,0 l/m 0,0 km/h (0 Bft) S-SW 193 0 min 0,000 mm 0,0 UV-I 0 W/m 11,1 C 13,6 C 0,0 km/h (0 Bft) 100,00 %
08.07.2016 01:54 13,6 C 85 % 1018,4 hPa 0,0 l/m 0,0 km/h (0 Bft) S-SW 194 0 min 0,000 mm 0,0 UV-I 0 W/m 11,1 C 13,6 C 0,0 km/h (0 Bft) 100,00 %
08.07.2016 01:56 13,6 C 85 % 1018,5 hPa 0,0 l/m 0,0 km/h (0 Bft) S-SW 193 0 min 0,000 mm 0,0 UV-I 0 W/m 11,1 C 13,6 C 0,0 km/h (0 Bft) 100,00 %
08.07.2016 01:58 13,6 C 85 % 1018,5 hPa 0,0 l/m 0,8 km/h (0 Bft) S-SW 193 0 min 0,000 mm 0,0 UV-I 0 W/m 11,1 C 13,6 C 3,2 km/h (1 Bft) 100,00 %
08.07.2016 02:00 13,6 C 85 % 1018,5 hPa 0,0 l/m 0,0 km/h (0 Bft) S-SW 194 0 min 0,000 mm 0,0 UV-I 0 W/m 11,1 C 13,6 C 0,0 km/h (0 Bft) 100,00 %
08.07.2016 02:02 13,5 C 85 % 1018,5 hPa 0,0 l/m 0,0 km/h (0 Bft) S-SW 193 0 min 0,000 mm 0,0 UV-I 0 W/m 11,0 C 13,5 C 0,0 km/h (0 Bft) 100,00 %
08.07.2016 02:04 13,5 C 85 % 1018,6 hPa 0,0 l/m 0,0 km/h (0 Bft) S-SW 194 0 min 0,000 mm 0,0 UV-I 0 W/m 11,0 C 13,5 C 0,0 km/h (0 Bft) 100,00 %
08.07.2016 02:06 13,4 C 86 % 1018,5 hPa 0,0 l/m 0,0 km/h (0 Bft) S-SW 194 0 min 0,000 mm 0,0 UV-I 0 W/m 11,1 C 13,4 C 0,0 km/h (0 Bft) 100,00 %
08.07.2016 02:08 13,4 C 86 % 1018,5 hPa 0,0 l/m 0,0 km/h (0 Bft) S-SW 193 0 min 0,000 mm 0,0 UV-I 0 W/m 11,1 C 13,4 C 0,0 km/h (0 Bft) 100,00 %
08.07.2016 02:10 13,3 C 86 % 1018,5 hPa 0,0 l/m 0,0 km/h (0 Bft) S-SW 194 0 min 0,000 mm 0,0 UV-I 0 W/m 11,0 C 13,3 C 0,0 km/h (0 Bft) 100,00 %
08.07.2016 02:12 13,3 C 86 % 1018,5 hPa 0,0 l/m 0,0 km/h (0 Bft) S-SW 193 0 min 0,000 mm 0,0 UV-I 0 W/m 11,0 C 13,3 C 0,0 km/h (0 Bft) 100,00 %
08.07.2016 02:14 13,2 C 86 % 1018,5 hPa 0,0 l/m 0,6 km/h (0 Bft) S-SW 193 0 min 0,000 mm 0,0 UV-I 0 W/m 10,9 C 13,2 C 1,6 km/h (1 Bft) 98,00 %
08.07.2016 02:16 13,2 C 86 % 1018,5 hPa 0,0 l/m 0,1 km/h (0 Bft) S-SW 194 0 min 0,000 mm 0,0 UV-I 0 W/m 10,9 C 13,2 C 1,6 km/h (1 Bft) 100,00 %
08.07.2016 02:18 13,1 C 86 % 1018,5 hPa 0,0 l/m 0,0 km/h (0 Bft) S-SW 193 0 min 0,000 mm 0,0 UV-I 0 W/m 10,8 C 13,1 C 0,0 km/h (0 Bft) 100,00 %
08.07.2016 02:20 13,2 C 86 % 1018,5 hPa 0,0 l/m 0,9 km/h (0 Bft) S-SW 194 0 min 0,000 mm 0,0 UV-I 0 W/m 10,9 C 13,2 C 3,2 km/h (1 Bft) 100,00 %
08.07.2016 02:22 13,2 C 86 % 1018,5 hPa 0,0 l/m 0,5 km/h (0 Bft) S-SW 194 0 min 0,000 mm 0,0 UV-I 0 W/m 10,9 C 13,2 C 1,6 km/h (1 Bft) 100,00 %
08.07.2016 02:24 13,2 C 86 % 1018,5 hPa 0,0 l/m 1,4 km/h (1 Bft) S-SW 193 0 min 0,000 mm 0,0 UV-I 0 W/m 10,9 C 13,2 C 1,6 km/h (1 Bft) 100,00 %
08.07.2016 02:26 13,2 C 85 % 1018,5 hPa 0,0 l/m 0,9 km/h (0 Bft) S-SW 193 0 min 0,000 mm 0,0 UV-I 0 W/m 10,7 C 13,2 C 1,6 km/h (1 Bft) 100,00 %
08.07.2016 02:28 13,1 C 86 % 1018,5 hPa 0,0 l/m 1,3 km/h (1 Bft) S-SW 193 0 min 0,000 mm 0,0 UV-I 0 W/m 10,8 C 13,1 C 3,2 km/h (1 Bft) 100,00 %
08.07.2016 02:30 13,0 C 86 % 1018,5 hPa 0,0 l/m 2,0 km/h (1 Bft) S-SW 193 0 min 0,000 mm 0,0 UV-I 0 W/m 10,7 C 13,0 C 3,2 km/h (1 Bft) 100,00 %
08.07.2016 02:32 12,9 C 86 % 1018,5 hPa 0,0 l/m 1,4 km/h (1 Bft) S-SW 194 0 min 0,000 mm 0,0 UV-I 0 W/m 10,6 C 12,9 C 1,6 km/h (1 Bft) 100,00 %
08.07.2016 02:34 12,9 C 86 % 1018,5 hPa 0,0 l/m 0,6 km/h (0 Bft) S-SW 194 0 min 0,000 mm 0,0 UV-I 0 W/m 10,6 C 12,9 C 1,6 km/h (1 Bft) 100,00 %
08.07.2016 02:36 12,9 C 87 % 1018,5 hPa 0,0 l/m 0,1 km/h (0 Bft) S-SW 194 0 min 0,000 mm 0,0 UV-I 0 W/m 10,8 C 12,9 C 1,6 km/h (1 Bft) 98,11 %
08.07.2016 02:38 12,9 C 87 % 1018,5 hPa 0,0 l/m 1,0 km/h (0 Bft) S-SW 193 0 min 0,000 mm 0,0 UV-I 0 W/m 10,8 C 12,9 C 3,2 km/h (1 Bft) 100,00 %
08.07.2016 02:40 12,9 C 87 % 1018,5 hPa 0,0 l/m 0,7 km/h (0 Bft) S-SW 193 0 min 0,000 mm 0,0 UV-I 0 W/m 10,8 C 12,9 C 1,6 km/h (1 Bft) 100,00 %
08.07.2016 02:42 12,9 C 87 % 1018,5 hPa 0,0 l/m 0,8 km/h (0 Bft) S-SW 193 0 min 0,000 mm 0,0 UV-I 0 W/m 10,8 C 12,9 C 1,6 km/h (1 Bft) 98,11 %
08.07.2016 02:44 12,9 C 87 % 1018,5 hPa 0,0 l/m 0,2 km/h (0 Bft) S-SW 194 0 min 0,000 mm 0,0 UV-I 0 W/m 10,8 C 12,9 C 1,6 km/h (1 Bft) 97,87 %
08.07.2016 02:46 12,9 C 87 % 1018,5 hPa 0,0 l/m 0,4 km/h (0 Bft) S-SW 194 0 min 0,000 mm 0,0 UV-I 0 W/m 10,8 C 12,9 C 1,6 km/h (1 Bft) 97,14 %
08.07.2016 02:48 12,9 C 86 % 1018,5 hPa 0,0 l/m 0,3 km/h (0 Bft) S-SW 193 0 min 0,000 mm 0,0 UV-I 0 W/m 10,6 C 12,9 C 1,6 km/h (1 Bft) 98,21 %
08.07.2016 02:50 12,9 C 87 % 1018,5 hPa 0,0 l/m 0,7 km/h (0 Bft) S-SW 193 0 min 0,000 mm 0,0 UV-I 0 W/m 10,8 C 12,9 C 1,6 km/h (1 Bft) 96,00 %
08.07.2016 02:52 12,9 C 87 % 1018,5 hPa 0,0 l/m 0,6 km/h (0 Bft) S-SW 194 0 min 0,000 mm 0,0 UV-I 0 W/m 10,8 C 12,9 C 1,6 km/h (1 Bft) 97,62 %
08.07.2016 02:54 13,1 C 86 % 1018,5 hPa 0,0 l/m 0,3 km/h (0 Bft) S-SW 193 0 min 0,000 mm 0,0 UV-I 0 W/m 10,8 C 13,1 C 1,6 km/h (1 Bft) 98,00 %
08.07.2016 02:56 13,1 C 86 % 1018,5 hPa 0,0 l/m 0,6 km/h (0 Bft) S-SW 193 0 min 0,000 mm 0,0 UV-I 0 W/m 10,8 C 13,1 C 1,6 km/h (1 Bft) 98,00 %
08.07.2016 02:58 13,1 C 86 % 1018,5 hPa 0,0 l/m 0,2 km/h (0 Bft) S-SW 194 0 min 0,000 mm 0,0 UV-I 0 W/m 10,8 C 13,1 C 1,6 km/h (1 Bft) 97,22 %
08.07.2016 03:00 13,1 C 86 % 1018,5 hPa 0,0 l/m 0,0 km/h (0 Bft) S-SW 194 0 min 0,000 mm 0,0 UV-I 0 W/m 10,8 C 13,1 C 0,0 km/h (0 Bft) 98,18 %
08.07.2016 03:02 13,1 C 86 % 1018,5 hPa 0,0 l/m 0,2 km/h (0 Bft) S-SW 194 0 min 0,000 mm 0,0 UV-I 0 W/m 10,8 C 13,1 C 1,6 km/h (1 Bft) 97,87 %
08.07.2016 03:04 13,1 C 86 % 1018,5 hPa 0,0 l/m 0,0 km/h (0 Bft) S-SW 193 0 min 0,000 mm 0,0 UV-I 0 W/m 10,8 C 13,1 C 0,0 km/h (0 Bft) 97,44 %
08.07.2016 03:06 13,0 C 87 % 1018,4 hPa 0,0 l/m 0,2 km/h (0 Bft) S-SW 193 0 min 0,000 mm 0,0 UV-I 0 W/m 10,9 C 13,0 C 1,6 km/h (1 Bft) 95,74 %
08.07.2016 03:08 12,9 C 86 % 1018,4 hPa 0,0 l/m 2,2 km/h (1 Bft) S-SW 194 0 min 0,000 mm 0,0 UV-I 0 W/m 10,6 C 12,9 C 3,2 km/h (1 Bft) 98,00 %
08.07.2016 03:10 12,7 C 86 % 1018,3 hPa 0,0 l/m 1,6 km/h (1 Bft) S-SW 193 0 min 0,000 mm 0,0 UV-I 0 W/m 10,4 C 12,7 C 3,2 km/h (1 Bft) 97,37 %
08.07.2016 03:12 12,5 C 87 % 1018,4 hPa 0,0 l/m 2,8 km/h (1 Bft) S-SW 194 0 min 0,000 mm 0,0 UV-I 0 W/m 10,4 C 12,5 C 4,8 km/h (1 Bft) 96,77 %
08.07.2016 03:14 12,4 C 87 % 1018,3 hPa 0,0 l/m 2,2 km/h (1 Bft) S-SW 194 0 min 0,000 mm 0,0 UV-I 0 W/m 10,3 C 12,4 C 3,2 km/h (1 Bft) 97,87 %
08.07.2016 03:16 12,3 C 88 % 1018,3 hPa 0,0 l/m 1,4 km/h (1 Bft) S-SW 193 0 min 0,000 mm 0,0 UV-I 0 W/m 10,4 C 12,3 C 3,2 km/h (1 Bft) 97,37 %
08.07.2016 03:18 12,2 C 88 % 1018,4 hPa 0,0 l/m 0,0 km/h (0 Bft) S-SW 193 0 min 0,000 mm 0,0 UV-I 0 W/m 10,3 C 12,2 C 0,0 km/h (0 Bft) 98,11 %
08.07.2016 03:20 12,2 C 89 % 1018,4 hPa 0,0 l/m 0,0 km/h (0 Bft) S-SW 194 0 min 0,000 mm 0,0 UV-I 0 W/m 10,4 C 12,2 C 0,0 km/h (0 Bft) 100,00 %
08.07.2016 03:22 12,1 C 89 % 1018,3 hPa 0,0 l/m 0,0 km/h (0 Bft) S-SW 193 0 min 0,000 mm 0,0 UV-I 0 W/m 10,3 C 12,1 C 1,6 km/h (1 Bft) 100,00 %
08.07.2016 03:24 12,1 C 89 % 1018,3 hPa 0,0 l/m 1,0 km/h (0 Bft) S-SW 194 0 min 0,000 mm 0,0 UV-I 0 W/m 10,3 C 12,1 C 3,2 km/h (1 Bft) 100,00 %
08.07.2016 03:26 12,2 C 89 % 1018,3 hPa 0,0 l/m 3,9 km/h (1 Bft) S-SW 194 0 min 0,000 mm 0,0 UV-I 0 W/m 10,4 C 12,2 C 4,8 km/h (1 Bft) 96,00 %
08.07.2016 03:28 12,2 C 89 % 1018,3 hPa 0,0 l/m 3,4 km/h (1 Bft) S-SW 194 0 min 0,000 mm 0,0 UV-I 0 W/m 10,4 C 12,2 C 4,8 km/h (1 Bft) 100,00 %
08.07.2016 03:30 12,2 C 89 % 1018,3 hPa 0,0 l/m 2,5 km/h (1 Bft) S-SW 193 0 min 0,000 mm 0,0 UV-I 0 W/m 10,4 C 12,2 C 4,8 km/h (1 Bft) 100,00 %
08.07.2016 03:32 12,3 C 89 % 1018,3 hPa 0,0 l/m 2,7 km/h (1 Bft) S-SW 193 0 min 0,000 mm 0,0 UV-I 0 W/m 10,5 C 12,3 C 4,8 km/h (1 Bft) 100,00 %
08.07.2016 03:34 12,3 C 89 % 1018,3 hPa 0,0 l/m 3,2 km/h (1 Bft) S-SW 193 0 min 0,000 mm 0,0 UV-I 0 W/m 10,5 C 12,3 C 4,8 km/h (1 Bft) 100,00 %
08.07.2016 03:36 12,4 C 88 % 1018,3 hPa 0,0 l/m 2,0 km/h (1 Bft) S-SW 194 0 min 0,000 mm 0,0 UV-I 0 W/m 10,5 C 12,4 C 3,2 km/h (1 Bft) 97,56 %
08.07.2016 03:38 12,3 C 88 % 1018,3 hPa 0,0 l/m 0,2 km/h (0 Bft) S-SW 194 0 min 0,000 mm 0,0 UV-I 0 W/m 10,4 C 12,3 C 1,6 km/h (1 Bft) 98,11 %
08.07.2016 03:40 12,3 C 88 % 1018,3 hPa 0,0 l/m 0,0 km/h (0 Bft) S-SW 194 0 min 0,000 mm 0,0 UV-I 0 W/m 10,4 C 12,3 C 0,0 km/h (0 Bft) 100,00 %
08.07.2016 03:42 12,2 C 89 % 1018,3 hPa 0,0 l/m 0,0 km/h (0 Bft) S-SW 193 0 min 0,000 mm 0,0 UV-I 0 W/m 10,4 C 12,2 C 1,6 km/h (1 Bft) 100,00 %
08.07.2016 03:44 12,2 C 89 % 1018,3 hPa 0,0 l/m 0,1 km/h (0 Bft) S-SW 193 0 min 0,000 mm 0,0 UV-I 0 W/m 10,4 C 12,2 C 1,6 km/h (1 Bft) 100,00 %
08.07.2016 03:46 12,2 C 89 % 1018,3 hPa 0,0 l/m 0,0 km/h (0 Bft) S-SW 194 0 min 0,000 mm 0,0 UV-I 0 W/m 10,4 C 12,2 C 1,6 km/h (1 Bft) 100,00 %
08.07.2016 03:48 12,2 C 89 % 1018,3 hPa 0,0 l/m 0,0 km/h (0 Bft) S-SW 193 0 min 0,000 mm 0,0 UV-I 0 W/m 10,4 C 12,2 C 1,6 km/h (1 Bft) 100,00 %
08.07.2016 03:50 12,2 C 89 % 1018,2 hPa 0,0 l/m 0,4 km/h (0 Bft) S-SW 194 0 min 0,000 mm 0,0 UV-I 0 W/m 10,4 C 12,2 C 1,6 km/h (1 Bft) 100,00 %
08.07.2016 03:52 12,1 C 88 % 1018,2 hPa 0,0 l/m 0,0 km/h (0 Bft) S-SW 194 0 min 0,000 mm 0,0 UV-I 0 W/m 10,2 C 12,1 C 0,0 km/h (0 Bft) 97,87 %
08.07.2016 03:54 12,1 C 89 % 1018,2 hPa 0,0 l/m 0,0 km/h (0 Bft) S-SW 193 0 min 0,000 mm 0,0 UV-I 0 W/m 10,3 C 12,1 C 0,0 km/h (0 Bft) 100,00 %
08.07.2016 03:56 12,0 C 89 % 1018,2 hPa 0,0 l/m 0,4 km/h (0 Bft) S-SW 193 0 min 0,000 mm 0,0 UV-I 0 W/m 10,2 C 12,0 C 1,6 km/h (1 Bft) 97,87 %
08.07.2016 03:58 12,0 C 89 % 1018,2 hPa 0,0 l/m 0,0 km/h (0 Bft) S-SW 194 0 min 0,000 mm 0,0 UV-I 0 W/m 10,2 C 12,0 C 1,6 km/h (1 Bft) 100,00 %
08.07.2016 04:00 12,0 C 89 % 1018,2 hPa 0,0 l/m 0,3 km/h (0 Bft) S-SW 193 0 min 0,000 mm 0,0 UV-I 0 W/m 10,2 C 12,0 C 1,6 km/h (1 Bft) 100,00 %
08.07.2016 04:05 12,0 C 89 % 1018,2 hPa 0,0 l/m 0,4 km/h (0 Bft) S-SW 193 0 min 0,000 mm 0,0 UV-I 0 W/m 10,2 C 12,0 C 1,6 km/h (1 Bft) 100,00 %
08.07.2016 04:06 12,0 C 89 % 1018,2 hPa 0,0 l/m 0,3 km/h (0 Bft) S-SW 194 0 min 0,000 mm 0,0 UV-I 0 W/m 10,2 C 12,0 C 1,6 km/h (1 Bft) 100,00 %
08.07.2016 04:08 11,9 C 89 % 1018,2 hPa 0,0 l/m 0,0 km/h (0 Bft) S-SW 194 0 min 0,000 mm 0,0 UV-I 0 W/m 10,1 C 11,9 C 1,6 km/h (1 Bft) 100,00 %
08.07.2016 04:10 11,9 C 90 % 1018,2 hPa 0,0 l/m 0,0 km/h (0 Bft) S-SW 193 0 min 0,000 mm 0,0 UV-I 0 W/m 10,3 C 11,9 C 0,0 km/h (0 Bft) 100,00 %
08.07.2016 04:12 11,9 C 89 % 1018,2 hPa 0,0 l/m 0,0 km/h (0 Bft) S-SW 194 0 min 0,000 mm 0,0 UV-I 0 W/m 10,1 C 11,9 C 0,0 km/h (0 Bft) 98,00 %
08.07.2016 04:14 11,9 C 90 % 1018,2 hPa 0,0 l/m 0,0 km/h (0 Bft) S-SW 193 0 min 0,000 mm 0,0 UV-I 0 W/m 10,3 C 11,9 C 0,0 km/h (0 Bft) 100,00 %
08.07.2016 04:16 11,8 C 89 % 1018,1 hPa 0,0 l/m 0,0 km/h (0 Bft) S-SW 194 0 min 0,000 mm 0,0 UV-I 0 W/m 10,0 C 11,8 C 0,0 km/h (0 Bft) 100,00 %
08.07.2016 04:18 11,8 C 89 % 1018,2 hPa 0,0 l/m 0,0 km/h (0 Bft) S-SW 193 0 min 0,000 mm 0,0 UV-I 0 W/m 10,0 C 11,8 C 1,6 km/h (1 Bft) 100,00 %
08.07.2016 04:20 11,8 C 89 % 1018,2 hPa 0,0 l/m 0,8 km/h (0 Bft) S-SW 193 0 min 0,000 mm 0,0 UV-I 0 W/m 10,0 C 11,8 C 1,6 km/h (1 Bft) 100,00 %
08.07.2016 04:22 11,7 C 89 % 1018,1 hPa 0,0 l/m 1,1 km/h (1 Bft) S-SW 193 0 min 0,000 mm 0,0 UV-I 0 W/m 9,9 C 11,7 C 1,6 km/h (1 Bft) 100,00 %
08.07.2016 04:24 11,7 C 90 % 1018,1 hPa 0,0 l/m 0,9 km/h (0 Bft) S-SW 193 0 min 0,000 mm 0,0 UV-I 0 W/m 10,1 C 11,7 C 1,6 km/h (1 Bft) 97,62 %
08.07.2016 04:26 11,7 C 90 % 1018,1 hPa 0,0 l/m 0,1 km/h (0 Bft) S-SW 193 0 min 0,000 mm 0,0 UV-I 0 W/m 10,1 C 11,7 C 1,6 km/h (1 Bft) 100,00 %
08.07.2016 04:28 11,7 C 90 % 1018,0 hPa 0,0 l/m 0,0 km/h (0 Bft) S-SW 193 0 min 0,000 mm 0,0 UV-I 0 W/m 10,1 C 11,7 C 0,0 km/h (0 Bft) 100,00 %
08.07.2016 04:30 11,7 C 90 % 1018,0 hPa 0,0 l/m 0,0 km/h (0 Bft) S-SW 194 0 min 0,000 mm 0,0 UV-I 0 W/m 10,1 C 11,7 C 1,6 km/h (1 Bft) 100,00 %
08.07.2016 04:32 11,7 C 89 % 1018,0 hPa 0,0 l/m 0,0 km/h (0 Bft) S-SW 194 0 min 0,000 mm 0,0 UV-I 0 W/m 9,9 C 11,7 C 1,6 km/h (1 Bft) 100,00 %
08.07.2016 04:34 11,7 C 89 % 1018,0 hPa 0,0 l/m 0,0 km/h (0 Bft) S-SW 193 0 min 0,000 mm 0,0 UV-I 0 W/m 9,9 C 11,7 C 0,0 km/h (0 Bft) 100,00 %
08.07.2016 04:36 11,6 C 89 % 1018,0 hPa 0,0 l/m 0,0 km/h (0 Bft) S-SW 194 0 min 0,000 mm 0,0 UV-I 0 W/m 9,8 C 11,6 C 0,0 km/h (0 Bft) 100,00 %
08.07.2016 04:38 11,6 C 89 % 1017,9 hPa 0,0 l/m 0,0 km/h (0 Bft) S-SW 194 0 min 0,000 mm 0,0 UV-I 0 W/m 9,8 C 11,6 C 0,0 km/h (0 Bft) 97,37 %
08.07.2016 04:40 11,6 C 90 % 1017,9 hPa 0,0 l/m 0,0 km/h (0 Bft) S-SW 193 0 min 0,000 mm 0,0 UV-I 0 W/m 10,0 C 11,6 C 0,0 km/h (0 Bft) 100,00 %
08.07.2016 04:42 11,6 C 90 % 1017,9 hPa 0,0 l/m 0,0 km/h (0 Bft) S-SW 193 0 min 0,000 mm 0,0 UV-I 0 W/m 10,0 C 11,6 C 0,0 km/h (0 Bft) 97,87 %
08.07.2016 04:44 11,6 C 90 % 1017,9 hPa 0,0 l/m 0,0 km/h (0 Bft) S-SW 193 0 min 0,000 mm 0,0 UV-I 0 W/m 10,0 C 11,6 C 0,0 km/h (0 Bft) 95,74 %
08.07.2016 04:46 11,6 C 90 % 1017,9 hPa 0,0 l/m 0,0 km/h (0 Bft) S-SW 193 0 min 0,000 mm 0,0 UV-I 0 W/m 10,0 C 11,6 C 0,0 km/h (0 Bft) 98,11 %
08.07.2016 04:48 11,6 C 90 % 1017,9 hPa 0,0 l/m 0,0 km/h (0 Bft) S-SW 193 0 min 0,000 mm 0,0 UV-I 0 W/m 10,0 C 11,6 C 0,0 km/h (0 Bft) 97,37 %
08.07.2016 04:50 11,6 C 90 % 1017,9 hPa 0,0 l/m 0,0 km/h (0 Bft) S-SW 194 0 min 0,000 mm 0,0 UV-I 0 W/m 10,0 C 11,6 C 0,0 km/h (0 Bft) 98,00 %
08.07.2016 04:52 11,5 C 90 % 1018,0 hPa 0,0 l/m 0,0 km/h (0 Bft) S-SW 194 0 min 0,000 mm 0,0 UV-I 0 W/m 9,9 C 11,5 C 0,0 km/h (0 Bft) 97,37 %
08.07.2016 04:54 11,5 C 90 % 1017,9 hPa 0,0 l/m 0,0 km/h (0 Bft) S-SW 194 0 min 0,000 mm 0,0 UV-I 0 W/m 9,9 C 11,5 C 0,0 km/h (0 Bft) 96,43 %
08.07.2016 04:56 11,5 C 90 % 1018,0 hPa 0,0 l/m 0,0 km/h (0 Bft) S-SW 194 0 min 0,000 mm 0,0 UV-I 0 W/m 9,9 C 11,5 C 0,0 km/h (0 Bft) 97,87 %
08.07.2016 04:58 11,4 C 90 % 1017,9 hPa 0,0 l/m 0,0 km/h (0 Bft) S-SW 193 0 min 0,000 mm 0,0 UV-I 0 W/m 9,8 C 11,4 C 0,0 km/h (0 Bft) 95,24 %
08.07.2016 05:00 11,4 C 90 % 1018,0 hPa 0,0 l/m 0,0 km/h (0 Bft) S-SW 193 0 min 0,000 mm 0,0 UV-I 0 W/m 9,8 C 11,4 C 0,0 km/h (0 Bft) 94,29 %
08.07.2016 05:02 11,3 C 90 % 1018,0 hPa 0,0 l/m 0,0 km/h (0 Bft) S-SW 193 0 min 0,000 mm 0,0 UV-I 0 W/m 9,7 C 11,3 C 0,0 km/h (0 Bft) 98,46 %
08.07.2016 05:04 11,3 C 91 % 1018,0 hPa 0,0 l/m 0,0 km/h (0 Bft) S-SW 193 0 min 0,000 mm 0,0 UV-I 0 W/m 9,9 C 11,3 C 0,0 km/h (0 Bft) 97,37 %
08.07.2016 05:06 11,3 C 91 % 1018,0 hPa 0,0 l/m 0,0 km/h (0 Bft) S-SW 193 0 min 0,000 mm 0,0 UV-I 1 W/m 9,9 C 11,3 C 0,0 km/h (0 Bft) 98,04 %
08.07.2016 05:08 11,3 C 91 % 1018,0 hPa 0,0 l/m 0,0 km/h (0 Bft) S-SW 193 0 min 0,000 mm 0,0 UV-I 6 W/m 9,9 C 11,3 C 0,0 km/h (0 Bft) 97,87 %
08.07.2016 05:10 11,3 C 92 % 1018,1 hPa 0,0 l/m 0,0 km/h (0 Bft) S-SW 193 0 min 0,000 mm 0,0 UV-I 7 W/m 10,0 C 11,3 C 0,0 km/h (0 Bft) 95,74 %
08.07.2016 05:12 11,3 C 92 % 1018,1 hPa 0,0 l/m 0,0 km/h (0 Bft) S-SW 193 0 min 0,000 mm 0,0 UV-I 9 W/m 10,0 C 11,3 C 1,6 km/h (1 Bft) 95,74 %
08.07.2016 05:14 11,3 C 91 % 1018,2 hPa 0,0 l/m 0,1 km/h (0 Bft) S-SW 193 0 min 0,000 mm 0,0 UV-I 10 W/m 9,9 C 11,3 C 1,6 km/h (1 Bft) 97,87 %
08.07.2016 05:16 11,3 C 91 % 1018,2 hPa 0,0 l/m 2,2 km/h (1 Bft) S-SW 194 0 min 0,000 mm 0,0 UV-I 11 W/m 9,9 C 11,3 C 3,2 km/h (1 Bft) 100,00 %
08.07.2016 05:18 11,3 C 91 % 1018,2 hPa 0,0 l/m 0,7 km/h (0 Bft) S-SW 193 0 min 0,000 mm 0,0 UV-I 12 W/m 9,9 C 11,3 C 1,6 km/h (1 Bft) 100,00 %
08.07.2016 05:20 11,3 C 91 % 1018,3 hPa 0,0 l/m 0,1 km/h (0 Bft) S-SW 193 0 min 0,000 mm 0,0 UV-I 13 W/m 9,9 C 11,3 C 1,6 km/h (1 Bft) 100,00 %
08.07.2016 05:22 11,3 C 91 % 1018,3 hPa 0,0 l/m 0,8 km/h (0 Bft) S-SW 193 0 min 0,000 mm 0,0 UV-I 14 W/m 9,9 C 11,3 C 1,6 km/h (1 Bft) 100,00 %
08.07.2016 05:24 11,3 C 91 % 1018,3 hPa 0,0 l/m 1,0 km/h (0 Bft) S-SW 193 0 min 0,000 mm 0,0 UV-I 14 W/m 9,9 C 11,3 C 1,6 km/h (1 Bft) 97,56 %
08.07.2016 05:26 11,3 C 91 % 1018,3 hPa 0,0 l/m 2,1 km/h (1 Bft) S-SW 193 2 min 0,000 mm 0,0 UV-I 16 W/m 9,9 C 11,3 C 3,2 km/h (1 Bft) 97,87 %
08.07.2016 05:28 11,3 C 91 % 1018,2 hPa 0,0 l/m 2,8 km/h (1 Bft) S-SW 193 2 min 0,000 mm 0,0 UV-I 16 W/m 9,9 C 11,3 C 3,2 km/h (1 Bft) 100,00 %
08.07.2016 05:30 11,4 C 91 % 1018,3 hPa 0,0 l/m 1,4 km/h (1 Bft) S-SW 193 2 min 0,000 mm 0,0 UV-I 17 W/m 10,0 C 11,4 C 3,2 km/h (1 Bft) 100,00 %
08.07.2016 05:32 11,4 C 91 % 1018,3 hPa 0,0 l/m 1,0 km/h (0 Bft) S-SW 193 2 min 0,000 mm 0,0 UV-I 18 W/m 10,0 C 11,4 C 1,6 km/h (1 Bft) 100,00 %
08.07.2016 05:34 11,5 C 91 % 1018,3 hPa 0,0 l/m 1,7 km/h (1 Bft) S-SW 194 0 min 0,000 mm 0,0 UV-I 18 W/m 10,1 C 11,5 C 3,2 km/h (1 Bft) 100,00 %
08.07.2016 05:36 11,6 C 91 % 1018,3 hPa 0,0 l/m 1,5 km/h (1 Bft) S-SW 194 0 min 0,000 mm 0,0 UV-I 19 W/m 10,2 C 11,6 C 3,2 km/h (1 Bft) 97,37 %
08.07.2016 05:38 11,6 C 90 % 1018,3 hPa 0,0 l/m 0,4 km/h (0 Bft) S-SW 194 0 min 0,000 mm 0,0 UV-I 19 W/m 10,0 C 11,6 C 1,6 km/h (1 Bft) 98,11 %
08.07.2016 05:40 11,6 C 91 % 1018,3 hPa 0,0 l/m 0,7 km/h (0 Bft) S-SW 193 0 min 0,000 mm 0,0 UV-I 19 W/m 10,2 C 11,6 C 1,6 km/h (1 Bft) 100,00 %
08.07.2016 05:42 11,6 C 91 % 1018,3 hPa 0,0 l/m 1,2 km/h (1 Bft) S-SW 193 0 min 0,000 mm 0,0 UV-I 20 W/m 10,2 C 11,6 C 1,6 km/h (1 Bft) 100,00 %
08.07.2016 05:44 11,6 C 90 % 1018,3 hPa 0,0 l/m 1,6 km/h (1 Bft) S-SW 194 0 min 0,000 mm 0,0 UV-I 21 W/m 10,0 C 11,6 C 3,2 km/h (1 Bft) 97,37 %
08.07.2016 05:46 11,7 C 90 % 1018,3 hPa 0,0 l/m 1,6 km/h (1 Bft) S-SW 194 0 min 0,000 mm 0,0 UV-I 21 W/m 10,1 C 11,7 C 3,2 km/h (1 Bft) 97,73 %
08.07.2016 05:48 11,7 C 90 % 1018,3 hPa 0,0 l/m 1,9 km/h (1 Bft) S-SW 194 0 min 0,000 mm 0,0 UV-I 21 W/m 10,1 C 11,7 C 3,2 km/h (1 Bft) 100,00 %
08.07.2016 05:50 11,7 C 90 % 1018,2 hPa 0,0 l/m 1,9 km/h (1 Bft) S-SW 194 0 min 0,000 mm 0,0 UV-I 23 W/m 10,1 C 11,7 C 3,2 km/h (1 Bft) 97,56 %
08.07.2016 05:52 11,8 C 90 % 1018,2 hPa 0,0 l/m 1,0 km/h (0 Bft) S-SW 194 0 min 0,000 mm 0,0 UV-I 23 W/m 10,2 C 11,8 C 1,6 km/h (1 Bft) 100,00 %
08.07.2016 05:54 11,8 C 91 % 1018,2 hPa 0,0 l/m 0,7 km/h (0 Bft) S-SW 193 0 min 0,000 mm 0,0 UV-I 23 W/m 10,4 C 11,8 C 1,6 km/h (1 Bft) 100,00 %
08.07.2016 05:56 11,9 C 90 % 1018,1 hPa 0,0 l/m 0,0 km/h (0 Bft) S-SW 194 0 min 0,000 mm 0,0 UV-I 23 W/m 10,3 C 11,9 C 0,0 km/h (0 Bft) 98,00 %
08.07.2016 05:58 11,8 C 90 % 1018,1 hPa 0,0 l/m 0,0 km/h (0 Bft) S-SW 194 0 min 0,000 mm 0,0 UV-I 23 W/m 10,2 C 11,8 C 0,0 km/h (0 Bft) 100,00 %
08.07.2016 06:00 11,8 C 91 % 1018,0 hPa 0,0 l/m 0,0 km/h (0 Bft) S-SW 194 0 min 0,000 mm 0,0 UV-I 24 W/m 10,4 C 11,8 C 0,0 km/h (0 Bft) 100,00 %
08.07.2016 06:02 11,7 C 91 % 1018,1 hPa 0,0 l/m 0,4 km/h (0 Bft) S-SW 194 0 min 0,000 mm 0,0 UV-I 25 W/m 10,3 C 11,7 C 1,6 km/h (1 Bft) 97,87 %
08.07.2016 06:04 11,7 C 91 % 1018,2 hPa 0,0 l/m 1,1 km/h (1 Bft) S-SW 194 0 min 0,000 mm 0,0 UV-I 25 W/m 10,3 C 11,7 C 1,6 km/h (1 Bft) 100,00 %
08.07.2016 06:06 11,8 C 91 % 1018,2 hPa 0,0 l/m 0,4 km/h (0 Bft) S-SW 194 0 min 0,000 mm 0,0 UV-I 26 W/m 10,4 C 11,8 C 1,6 km/h (1 Bft) 100,00 %
08.07.2016 06:08 11,8 C 91 % 1018,0 hPa 0,0 l/m 0,4 km/h (0 Bft) S-SW 194 0 min 0,000 mm 0,0 UV-I 26 W/m 10,4 C 11,8 C 1,6 km/h (1 Bft) 98,00 %
08.07.2016 06:10 11,8 C 91 % 1018,0 hPa 0,0 l/m 0,4 km/h (0 Bft) S-SW 194 0 min 0,000 mm 0,0 UV-I 26 W/m 10,4 C 11,8 C 1,6 km/h (1 Bft) 100,00 %
08.07.2016 06:12 11,9 C 90 % 1018,0 hPa 0,0 l/m 0,0 km/h (0 Bft) S-SW 194 0 min 0,000 mm 0,0 UV-I 26 W/m 10,3 C 11,9 C 0,0 km/h (0 Bft) 100,00 %
08.07.2016 06:14 12,0 C 90 % 1018,0 hPa 0,0 l/m 0,0 km/h (0 Bft) S-SW 194 0 min 0,000 mm 0,0 UV-I 26 W/m 10,4 C 12,0 C 0,0 km/h (0 Bft) 97,87 %
08.07.2016 06:16 12,1 C 90 % 1018,0 hPa 0,0 l/m 0,0 km/h (0 Bft) S-SW 194 0 min 0,000 mm 0,0 UV-I 26 W/m 10,5 C 12,1 C 0,0 km/h (0 Bft) 100,00 %
08.07.2016 06:18 12,2 C 90 % 1018,0 hPa 0,0 l/m 0,0 km/h (0 Bft) S-SW 194 0 min 0,000 mm 0,0 UV-I 27 W/m 10,6 C 12,2 C 0,0 km/h (0 Bft) 100,00 %
08.07.2016 06:20 12,2 C 89 % 1018,0 hPa 0,0 l/m 0,0 km/h (0 Bft) S-SW 194 0 min 0,000 mm 0,0 UV-I 29 W/m 10,4 C 12,2 C 0,0 km/h (0 Bft) 97,62 %
08.07.2016 06:22 12,2 C 89 % 1018,0 hPa 0,0 l/m 0,0 km/h (0 Bft) S-SW 194 0 min 0,000 mm 0,0 UV-I 30 W/m 10,4 C 12,2 C 0,0 km/h (0 Bft) 97,87 %
08.07.2016 06:24 12,2 C 89 % 1018,0 hPa 0,0 l/m 0,0 km/h (0 Bft) S-SW 194 0 min 0,000 mm 0,0 UV-I 31 W/m 10,4 C 12,2 C 0,0 km/h (0 Bft) 100,00 %
08.07.2016 06:26 12,2 C 90 % 1018,0 hPa 0,0 l/m 0,0 km/h (0 Bft) S-SW 194 0 min 0,000 mm 0,0 UV-I 32 W/m 10,6 C 12,2 C 0,0 km/h (0 Bft) 98,00 %
08.07.2016 06:28 12,3 C 90 % 1017,9 hPa 0,0 l/m 0,0 km/h (0 Bft) S-SW 194 0 min 0,000 mm 0,0 UV-I 33 W/m 10,7 C 12,3 C 0,0 km/h (0 Bft) 100,00 %
08.07.2016 06:30 12,4 C 89 % 1017,9 hPa 0,0 l/m 0,0 km/h (0 Bft) S-SW 194 0 min 0,000 mm 0,0 UV-I 33 W/m 10,6 C 12,4 C 0,0 km/h (0 Bft) 100,00 %
08.07.2016 06:32 12,5 C 89 % 1017,9 hPa 0,0 l/m 0,0 km/h (0 Bft) S-SW 194 0 min 0,000 mm 0,0 UV-I 33 W/m 10,7 C 12,5 C 0,0 km/h (0 Bft) 100,00 %
08.07.2016 06:34 12,6 C 89 % 1017,9 hPa 0,0 l/m 0,0 km/h (0 Bft) S-SW 194 0 min 0,000 mm 0,0 UV-I 34 W/m 10,8 C 12,6 C 1,6 km/h (1 Bft) 100,00 %
08.07.2016 06:36 12,7 C 90 % 1018,0 hPa 0,0 l/m 0,0 km/h (0 Bft) S-SW 193 0 min 0,000 mm 0,0 UV-I 35 W/m 11,1 C 12,7 C 0,0 km/h (0 Bft) 100,00 %
08.07.2016 06:38 12,7 C 91 % 1018,0 hPa 0,0 l/m 0,0 km/h (0 Bft) S-SW 194 0 min 0,000 mm 0,0 UV-I 36 W/m 11,3 C 12,7 C 0,0 km/h (0 Bft) 100,00 %
08.07.2016 06:40 12,7 C 90 % 1018,0 hPa 0,0 l/m 0,0 km/h (0 Bft) S-SW 194 0 min 0,000 mm 0,0 UV-I 58 W/m 11,1 C 12,7 C 0,0 km/h (0 Bft) 100,00 %
08.07.2016 06:42 12,7 C 90 % 1018,0 hPa 0,0 l/m 0,5 km/h (0 Bft) S-SW 194 0 min 0,000 mm 0,0 UV-I 67 W/m 11,1 C 12,7 C 1,6 km/h (1 Bft) 100,00 %
08.07.2016 06:44 12,8 C 90 % 1018,0 hPa 0,0 l/m 2,1 km/h (1 Bft) S-SW 194 0 min 0,000 mm 0,0 UV-I 92 W/m 11,2 C 12,8 C 3,2 km/h (1 Bft) 100,00 %
08.07.2016 06:46 12,8 C 90 % 1017,9 hPa 0,0 l/m 1,9 km/h (1 Bft) S-SW 194 0 min 0,000 mm 0,0 UV-I 102 W/m 11,2 C 12,8 C 3,2 km/h (1 Bft) 96,49 %
08.07.2016 06:48 13,0 C 91 % 1017,9 hPa 0,0 l/m 4,6 km/h (1 Bft) S-SW 193 0 min 0,000 mm 0,0 UV-I 103 W/m 11,6 C 13,0 C 6,4 km/h (2 Bft) 96,00 %
08.07.2016 06:50 13,1 C 91 % 1017,9 hPa 0,0 l/m 4,2 km/h (1 Bft) NO 38 0 min 0,000 mm 0,0 UV-I 112 W/m 11,7 C 13,1 C 6,4 km/h (2 Bft) 100,00 %
08.07.2016 06:52 13,2 C 90 % 1018,0 hPa 0,0 l/m 0,8 km/h (0 Bft) NO 38 0 min 0,000 mm 0,0 UV-I 124 W/m 11,6 C 13,2 C 3,2 km/h (1 Bft) 98,11 %
08.07.2016 06:54 13,3 C 91 % 1018,0 hPa 0,0 l/m 0,1 km/h (0 Bft) NO 38 0 min 0,000 mm 0,0 UV-I 132 W/m 11,9 C 13,3 C 1,6 km/h (1 Bft) 97,87 %
08.07.2016 06:56 13,4 C 91 % 1018,0 hPa 0,0 l/m 0,2 km/h (0 Bft) NO 38 0 min 0,000 mm 0,0 UV-I 135 W/m 12,0 C 13,4 C 1,6 km/h (1 Bft) 98,00 %
08.07.2016 06:58 13,5 C 90 % 1018,0 hPa 0,0 l/m 0,2 km/h (0 Bft) NO 36 0 min 0,000 mm 0,0 UV-I 132 W/m 11,9 C 13,5 C 1,6 km/h (1 Bft) 97,44 %
08.07.2016 07:00 13,6 C 90 % 1018,1 hPa 0,0 l/m 0,4 km/h (0 Bft) NO 36 2 min 0,026 mm 0,0 UV-I 149 W/m 12,0 C 13,6 C 1,6 km/h (1 Bft) 100,00 %
08.07.2016 07:02 13,7 C 90 % 1018,0 hPa 0,0 l/m 2,1 km/h (1 Bft) N-NO 28 2 min 0,000 mm 0,0 UV-I 154 W/m 12,1 C 13,7 C 4,8 km/h (1 Bft) 96,77 %
08.07.2016 07:04 13,7 C 89 % 1018,0 hPa 0,0 l/m 2,9 km/h (1 Bft) N-NO 28 2 min 0,000 mm 0,0 UV-I 160 W/m 11,9 C 13,7 C 4,8 km/h (1 Bft) 98,00 %
08.07.2016 07:06 13,8 C 89 % 1018,0 hPa 0,0 l/m 2,4 km/h (1 Bft) N-NO 28 2 min 0,000 mm 0,0 UV-I 165 W/m 12,0 C 13,8 C 4,8 km/h (1 Bft) 97,87 %
08.07.2016 07:08 13,9 C 89 % 1018,1 hPa 0,0 l/m 1,5 km/h (1 Bft) N-NO 26 2 min 0,000 mm 0,0 UV-I 172 W/m 12,1 C 13,9 C 3,2 km/h (1 Bft) 97,87 %
08.07.2016 07:10 14,0 C 88 % 1018,0 hPa 0,0 l/m 0,7 km/h (0 Bft) N-NO 26 2 min 0,000 mm 0,0 UV-I 178 W/m 12,0 C 14,0 C 3,2 km/h (1 Bft) 95,74 %
08.07.2016 07:12 14,1 C 88 % 1018,0 hPa 0,0 l/m 3,0 km/h (1 Bft) N-NO 26 2 min 0,000 mm 0,0 UV-I 177 W/m 12,1 C 14,1 C 4,8 km/h (1 Bft) 94,00 %
08.07.2016 07:14 14,1 C 88 % 1017,9 hPa 0,0 l/m 3,2 km/h (1 Bft) N-NO 26 2 min 0,000 mm 0,0 UV-I 186 W/m 12,1 C 14,1 C 4,8 km/h (1 Bft) 97,87 %
08.07.2016 07:16 14,2 C 88 % 1017,9 hPa 0,0 l/m 4,1 km/h (1 Bft) N-NO 26 2 min 0,000 mm 0,3 UV-I 196 W/m 12,2 C 14,2 C 6,4 km/h (2 Bft) 94,00 %
08.07.2016 07:18 14,3 C 87 % 1018,0 hPa 0,0 l/m 2,7 km/h (1 Bft) N-NO 26 2 min 0,000 mm 0,5 UV-I 203 W/m 12,2 C 14,3 C 6,4 km/h (2 Bft) 97,37 %
08.07.2016 07:20 14,3 C 87 % 1017,9 hPa 0,0 l/m 2,9 km/h (1 Bft) N-NO 24 2 min 0,000 mm 0,5 UV-I 210 W/m 12,2 C 14,3 C 4,8 km/h (1 Bft) 98,21 %
08.07.2016 07:22 14,4 C 86 % 1017,9 hPa 0,0 l/m 2,7 km/h (1 Bft) N-NO 24 2 min 0,000 mm 0,5 UV-I 216 W/m 12,1 C 14,4 C 4,8 km/h (1 Bft) 93,62 %
08.07.2016 07:24 14,4 C 86 % 1017,9 hPa 0,0 l/m 1,7 km/h (1 Bft) N-NO 24 2 min 0,000 mm 0,5 UV-I 220 W/m 12,1 C 14,4 C 3,2 km/h (1 Bft) 97,37 %
08.07.2016 07:26 14,6 C 87 % 1018,0 hPa 0,0 l/m 0,3 km/h (0 Bft) N-NO 24 2 min 0,000 mm 0,5 UV-I 229 W/m 12,5 C 14,6 C 1,6 km/h (1 Bft) 97,56 %
08.07.2016 07:28 14,6 C 86 % 1018,0 hPa 0,0 l/m 1,8 km/h (1 Bft) N-NO 24 2 min 0,000 mm 0,6 UV-I 236 W/m 12,3 C 14,6 C 4,8 km/h (1 Bft) 98,11 %
08.07.2016 07:30 14,7 C 85 % 1018,0 hPa 0,0 l/m 1,8 km/h (1 Bft) N-NO 24 2 min 0,000 mm 0,6 UV-I 242 W/m 12,2 C 14,7 C 4,8 km/h (1 Bft) 98,00 %
08.07.2016 07:32 14,7 C 85 % 1018,0 hPa 0,0 l/m 0,7 km/h (0 Bft) N-NO 24 2 min 0,000 mm 0,6 UV-I 244 W/m 12,2 C 14,7 C 3,2 km/h (1 Bft) 100,00 %
08.07.2016 07:34 14,8 C 86 % 1018,0 hPa 0,0 l/m 0,1 km/h (0 Bft) N-NO 24 2 min 0,000 mm 0,6 UV-I 243 W/m 12,5 C 14,8 C 1,6 km/h (1 Bft) 100,00 %
08.07.2016 07:36 14,9 C 85 % 1018,0 hPa 0,0 l/m 0,3 km/h (0 Bft) N-NO 24 2 min 0,000 mm 0,7 UV-I 241 W/m 12,4 C 14,9 C 1,6 km/h (1 Bft) 100,00 %
08.07.2016 07:38 15,0 C 85 % 1018,0 hPa 0,0 l/m 0,8 km/h (0 Bft) N-NO 24 2 min 0,000 mm 0,7 UV-I 244 W/m 12,5 C 15,0 C 3,2 km/h (1 Bft) 97,22 %
08.07.2016 07:40 15,1 C 86 % 1017,9 hPa 0,0 l/m 1,1 km/h (1 Bft) N-NO 23 2 min 0,000 mm 0,7 UV-I 254 W/m 12,8 C 15,1 C 4,8 km/h (1 Bft) 98,36 %
08.07.2016 07:42 15,2 C 85 % 1017,9 hPa 0,0 l/m 2,5 km/h (1 Bft) NO 34 2 min 0,000 mm 0,7 UV-I 279 W/m 12,7 C 15,2 C 3,2 km/h (1 Bft) 100,00 %
08.07.2016 07:44 15,2 C 84 % 1017,9 hPa 0,0 l/m 2,2 km/h (1 Bft) N-NO 26 2 min 0,000 mm 0,8 UV-I 291 W/m 12,5 C 15,2 C 4,8 km/h (1 Bft) 100,00 %
08.07.2016 07:46 15,3 C 85 % 1017,9 hPa 0,0 l/m 4,3 km/h (1 Bft) NO 36 2 min 0,000 mm 0,8 UV-I 295 W/m 12,8 C 15,3 C 6,4 km/h (2 Bft) 100,00 %
08.07.2016 07:48 15,4 C 84 % 1017,9 hPa 0,0 l/m 3,4 km/h (1 Bft) NO 36 2 min 0,000 mm 0,8 UV-I 301 W/m 12,7 C 15,4 C 6,4 km/h (2 Bft) 100,00 %
08.07.2016 07:50 15,4 C 84 % 1017,9 hPa 0,0 l/m 3,5 km/h (1 Bft) O-NO 63 2 min 0,000 mm 0,8 UV-I 308 W/m 12,7 C 15,4 C 6,4 km/h (2 Bft) 97,87 %
08.07.2016 07:52 15,5 C 82 % 1017,9 hPa 0,0 l/m 3,4 km/h (1 Bft) O-NO 63 2 min 0,000 mm 0,9 UV-I 313 W/m 12,4 C 15,5 C 4,8 km/h (1 Bft) 100,00 %
08.07.2016 07:54 15,6 C 84 % 1017,9 hPa 0,0 l/m 3,6 km/h (1 Bft) O-NO 61 2 min 0,000 mm 0,9 UV-I 320 W/m 12,9 C 15,6 C 6,4 km/h (2 Bft) 100,00 %
08.07.2016 07:56 15,7 C 81 % 1017,9 hPa 0,0 l/m 4,6 km/h (1 Bft) NO 49 2 min 0,000 mm 0,9 UV-I 325 W/m 12,4 C 15,7 C 6,4 km/h (2 Bft) 100,00 %
08.07.2016 07:58 15,8 C 81 % 1017,9 hPa 0,0 l/m 4,4 km/h (1 Bft) O-NO 76 2 min 0,000 mm 0,9 UV-I 331 W/m 12,5 C 15,8 C 8,0 km/h (2 Bft) 100,00 %
08.07.2016 08:00 15,8 C 80 % 1017,9 hPa 0,0 l/m 5,1 km/h (1 Bft) NO 56 2 min 0,127 mm 1,0 UV-I 337 W/m 12,4 C 15,8 C 8,0 km/h (2 Bft) 100,00 %
08.07.2016 08:02 15,8 C 79 % 1017,9 hPa 0,0 l/m 5,8 km/h (2 Bft) O-NO 60 2 min 0,000 mm 1,0 UV-I 343 W/m 12,2 C 15,8 C 8,0 km/h (2 Bft) 98,15 %
08.07.2016 08:04 15,8 C 80 % 1017,9 hPa 0,0 l/m 6,2 km/h (2 Bft) NO 56 2 min 0,000 mm 1,0 UV-I 347 W/m 12,4 C 15,8 C 8,0 km/h (2 Bft) 97,56 %
08.07.2016 08:06 15,9 C 80 % 1017,8 hPa 0,0 l/m 6,0 km/h (2 Bft) NO 44 2 min 0,000 mm 1,1 UV-I 354 W/m 12,5 C 15,9 C 9,7 km/h (2 Bft) 100,00 %
08.07.2016 08:08 16,0 C 82 % 1017,8 hPa 0,0 l/m 5,9 km/h (2 Bft) NO 40 2 min 0,000 mm 1,1 UV-I 361 W/m 12,9 C 16,0 C 8,0 km/h (2 Bft) 98,00 %
08.07.2016 08:10 16,2 C 82 % 1017,8 hPa 0,0 l/m 4,9 km/h (1 Bft) NO 44 2 min 0,000 mm 1,1 UV-I 370 W/m 13,1 C 16,2 C 8,0 km/h (2 Bft) 100,00 %
08.07.2016 08:12 16,2 C 83 % 1017,9 hPa 0,0 l/m 3,8 km/h (1 Bft) NO 41 2 min 0,000 mm 1,2 UV-I 378 W/m 13,3 C 16,2 C 4,8 km/h (1 Bft) 100,00 %
08.07.2016 08:14 16,3 C 80 % 1017,8 hPa 0,0 l/m 3,9 km/h (1 Bft) NO 40 2 min 0,000 mm 1,2 UV-I 386 W/m 12,8 C 16,3 C 6,4 km/h (2 Bft) 97,62 %
08.07.2016 08:16 16,4 C 81 % 1017,9 hPa 0,0 l/m 3,7 km/h (1 Bft) NO 40 2 min 0,000 mm 1,2 UV-I 392 W/m 13,1 C 16,4 C 6,4 km/h (2 Bft) 95,74 %
08.07.2016 08:18 16,5 C 80 % 1018,0 hPa 0,0 l/m 2,2 km/h (1 Bft) NO 40 2 min 0,000 mm 1,2 UV-I 383 W/m 13,0 C 16,5 C 3,2 km/h (1 Bft) 100,00 %
08.07.2016 08:20 16,6 C 78 % 1018,0 hPa 0,0 l/m 4,3 km/h (1 Bft) O-NO 62 2 min 0,000 mm 1,3 UV-I 392 W/m 12,7 C 16,6 C 8,0 km/h (2 Bft) 100,00 %
08.07.2016 08:22 16,7 C 79 % 1018,0 hPa 0,0 l/m 4,0 km/h (1 Bft) O-NO 59 2 min 0,000 mm 1,3 UV-I 366 W/m 13,0 C 16,7 C 6,4 km/h (2 Bft) 100,00 %
08.07.2016 08:24 16,8 C 79 % 1017,9 hPa 0,0 l/m 2,9 km/h (1 Bft) O 93 2 min 0,000 mm 1,3 UV-I 316 W/m 13,1 C 16,8 C 4,8 km/h (1 Bft) 100,00 %
08.07.2016 08:26 16,9 C 79 % 1017,9 hPa 0,0 l/m 3,0 km/h (1 Bft) O-NO 60 2 min 0,000 mm 1,4 UV-I 426 W/m 13,2 C 16,9 C 4,8 km/h (1 Bft) 100,00 %
08.07.2016 08:28 17,2 C 80 % 1018,0 hPa 0,0 l/m 1,7 km/h (1 Bft) O-NO 72 2 min 0,000 mm 1,4 UV-I 403 W/m 13,7 C 17,2 C 4,8 km/h (1 Bft) 100,00 %
08.07.2016 08:30 17,2 C 76 % 1018,0 hPa 0,0 l/m 4,1 km/h (1 Bft) O-NO 65 2 min 0,000 mm 1,4 UV-I 391 W/m 12,9 C 17,2 C 8,0 km/h (2 Bft) 100,00 %
08.07.2016 08:32 17,2 C 76 % 1018,0 hPa 0,0 l/m 3,5 km/h (1 Bft) O 98 2 min 0,000 mm 1,5 UV-I 426 W/m 12,9 C 17,2 C 6,4 km/h (2 Bft) 100,00 %
08.07.2016 08:34 17,2 C 77 % 1018,0 hPa 0,0 l/m 4,6 km/h (1 Bft) O-NO 61 2 min 0,000 mm 1,5 UV-I 449 W/m 13,1 C 17,2 C 8,0 km/h (2 Bft) 100,00 %
08.07.2016 08:36 17,3 C 74 % 1018,0 hPa 0,0 l/m 3,7 km/h (1 Bft) O-NO 69 2 min 0,000 mm 1,5 UV-I 451 W/m 12,6 C 17,3 C 6,4 km/h (2 Bft) 100,00 %
08.07.2016 08:38 17,3 C 75 % 1018,0 hPa 0,0 l/m 3,9 km/h (1 Bft) O-NO 65 2 min 0,000 mm 1,6 UV-I 454 W/m 12,8 C 17,3 C 6,4 km/h (2 Bft) 98,00 %
08.07.2016 08:40 17,6 C 75 % 1018,0 hPa 0,0 l/m 3,3 km/h (1 Bft) O-NO 65 2 min 0,000 mm 1,6 UV-I 457 W/m 13,1 C 17,6 C 6,4 km/h (2 Bft) 100,00 %
08.07.2016 08:42 17,7 C 76 % 1018,0 hPa 0,0 l/m 3,8 km/h (1 Bft) O-NO 69 2 min 0,000 mm 1,7 UV-I 462 W/m 13,4 C 17,7 C 6,4 km/h (2 Bft) 100,00 %
08.07.2016 08:44 17,8 C 73 % 1018,0 hPa 0,0 l/m 4,6 km/h (1 Bft) O-NO 68 2 min 0,000 mm 1,7 UV-I 467 W/m 12,9 C 17,8 C 6,4 km/h (2 Bft) 100,00 %
08.07.2016 08:46 17,8 C 73 % 1017,9 hPa 0,0 l/m 5,0 km/h (1 Bft) NO 40 2 min 0,000 mm 1,7 UV-I 474 W/m 12,9 C 17,8 C 8,0 km/h (2 Bft) 98,00 %
08.07.2016 08:48 18,0 C 74 % 1017,9 hPa 0,0 l/m 3,4 km/h (1 Bft) NO 36 2 min 0,000 mm 1,8 UV-I 479 W/m 13,3 C 18,0 C 6,4 km/h (2 Bft) 95,74 %
08.07.2016 08:50 18,1 C 71 % 1018,0 hPa 0,0 l/m 3,4 km/h (1 Bft) O-NO 72 2 min 0,000 mm 1,9 UV-I 485 W/m 12,8 C 18,1 C 6,4 km/h (2 Bft) 96,00 %
08.07.2016 08:52 18,1 C 71 % 1018,0 hPa 0,0 l/m 2,2 km/h (1 Bft) O-NO 57 2 min 0,000 mm 1,9 UV-I 492 W/m 12,8 C 18,1 C 4,8 km/h (1 Bft) 97,22 %
08.07.2016 08:54 18,1 C 69 % 1017,9 hPa 0,0 l/m 4,0 km/h (1 Bft) NO 44 2 min 0,000 mm 2,0 UV-I 498 W/m 12,3 C 18,1 C 6,4 km/h (2 Bft) 98,00 %
08.07.2016 08:56 18,1 C 72 % 1017,9 hPa 0,0 l/m 1,9 km/h (1 Bft) N-NO 22 2 min 0,000 mm 2,0 UV-I 503 W/m 13,0 C 18,1 C 3,2 km/h (1 Bft) 94,00 %
08.07.2016 08:58 18,3 C 75 % 1018,0 hPa 0,0 l/m 3,5 km/h (1 Bft) N-NO 22 2 min 0,000 mm 2,0 UV-I 510 W/m 13,8 C 18,3 C 6,4 km/h (2 Bft) 97,56 %
08.07.2016 09:00 18,3 C 72 % 1018,0 hPa 0,0 l/m 1,4 km/h (1 Bft) N-NO 22 2 min 0,254 mm 2,1 UV-I 507 W/m 13,2 C 18,3 C 3,2 km/h (1 Bft) 98,11 %
08.07.2016 09:02 18,3 C 71 % 1018,0 hPa 0,0 l/m 3,1 km/h (1 Bft) NO 51 2 min 0,000 mm 2,1 UV-I 512 W/m 12,9 C 18,3 C 6,4 km/h (2 Bft) 96,23 %
08.07.2016 09:04 18,4 C 71 % 1018,0 hPa 0,0 l/m 5,3 km/h (1 Bft) NO 44 2 min 0,000 mm 2,1 UV-I 474 W/m 13,0 C 18,4 C 8,0 km/h (2 Bft) 97,37 %
08.07.2016 09:06 18,6 C 73 % 1017,9 hPa 0,0 l/m 4,8 km/h (1 Bft) NO 40 2 min 0,000 mm 2,1 UV-I 421 W/m 13,7 C 18,6 C 8,0 km/h (2 Bft) 98,00 %
08.07.2016 09:08 18,5 C 70 % 1017,9 hPa 0,0 l/m 1,7 km/h (1 Bft) NO 40 0 min 0,000 mm 2,2 UV-I 297 W/m 12,9 C 18,5 C 4,8 km/h (1 Bft) 95,74 %
08.07.2016 09:10 18,4 C 70 % 1017,9 hPa 0,0 l/m 1,9 km/h (1 Bft) NO 40 2 min 0,000 mm 2,3 UV-I 463 W/m 12,8 C 18,4 C 3,2 km/h (1 Bft) 96,00 %
08.07.2016 09:12 18,6 C 71 % 1017,9 hPa 0,0 l/m 3,2 km/h (1 Bft) O-NO 70 2 min 0,000 mm 2,4 UV-I 478 W/m 13,2 C 18,6 C 8,0 km/h (2 Bft) 100,00 %
08.07.2016 09:14 18,8 C 68 % 1017,8 hPa 0,0 l/m 5,8 km/h (2 Bft) O-NO 69 2 min 0,000 mm 2,4 UV-I 473 W/m 12,8 C 18,8 C 8,0 km/h (2 Bft) 96,23 %
08.07.2016 09:16 18,8 C 69 % 1017,8 hPa 0,0 l/m 1,7 km/h (1 Bft) O-NO 58 2 min 0,000 mm 2,5 UV-I 473 W/m 13,0 C 18,8 C 4,8 km/h (1 Bft) 97,56 %
08.07.2016 09:18 18,9 C 71 % 1017,8 hPa 0,0 l/m 2,0 km/h (1 Bft) NO 34 2 min 0,000 mm 2,5 UV-I 470 W/m 13,5 C 18,9 C 4,8 km/h (1 Bft) 96,00 %
08.07.2016 09:20 19,1 C 71 % 1017,8 hPa 0,0 l/m 2,4 km/h (1 Bft) N-NO 22 2 min 0,000 mm 2,6 UV-I 470 W/m 13,7 C 19,1 C 6,4 km/h (2 Bft) 100,00 %
08.07.2016 09:22 19,1 C 70 % 1017,8 hPa 0,0 l/m 1,5 km/h (1 Bft) N-NO 24 2 min 0,000 mm 2,5 UV-I 454 W/m 13,5 C 19,1 C 3,2 km/h (1 Bft) 98,00 %
08.07.2016 09:24 19,2 C 71 % 1017,8 hPa 0,0 l/m 5,4 km/h (1 Bft) NO 42 2 min 0,000 mm 2,6 UV-I 454 W/m 13,8 C 19,2 C 8,0 km/h (2 Bft) 100,00 %
08.07.2016 09:26 19,3 C 68 % 1017,8 hPa 0,0 l/m 6,3 km/h (2 Bft) O-NO 60 2 min 0,000 mm 2,7 UV-I 464 W/m 13,2 C 19,3 C 9,7 km/h (2 Bft) 98,31 %
08.07.2016 09:28 19,3 C 68 % 1017,7 hPa 0,0 l/m 2,6 km/h (1 Bft) NO 44 2 min 0,000 mm 2,3 UV-I 357 W/m 13,2 C 19,3 C 6,4 km/h (2 Bft) 100,00 %
08.07.2016 09:30 19,2 C 69 % 1017,8 hPa 0,0 l/m 1,7 km/h (1 Bft) NO 44 0 min 0,000 mm 2,3 UV-I 293 W/m 13,4 C 19,2 C 3,2 km/h (1 Bft) 100,00 %
08.07.2016 09:32 19,2 C 69 % 1017,8 hPa 0,0 l/m 4,0 km/h (1 Bft) O-NO 76 2 min 0,000 mm 2,5 UV-I 408 W/m 13,4 C 19,2 C 9,7 km/h (2 Bft) 97,87 %
08.07.2016 09:34 19,3 C 67 % 1017,8 hPa 0,0 l/m 4,1 km/h (1 Bft) O-SO 111 2 min 0,000 mm 2,4 UV-I 370 W/m 13,0 C 19,3 C 8,0 km/h (2 Bft) 100,00 %
08.07.2016 09:36 19,4 C 70 % 1017,8 hPa 0,0 l/m 5,0 km/h (1 Bft) NO 56 2 min 0,000 mm 2,8 UV-I 450 W/m 13,8 C 19,4 C 8,0 km/h (2 Bft) 100,00 %
08.07.2016 09:38 19,6 C 68 % 1017,8 hPa 0,0 l/m 3,1 km/h (1 Bft) O 89 2 min 0,000 mm 2,9 UV-I 548 W/m 13,5 C 19,6 C 4,8 km/h (1 Bft) 100,00 %
08.07.2016 09:40 19,6 C 66 % 1017,7 hPa 0,0 l/m 5,6 km/h (1 Bft) O-NO 57 2 min 0,000 mm 2,9 UV-I 551 W/m 13,1 C 19,6 C 8,0 km/h (2 Bft) 100,00 %
08.07.2016 09:42 19,7 C 68 % 1017,7 hPa 0,0 l/m 4,4 km/h (1 Bft) O-NO 57 2 min 0,000 mm 2,8 UV-I 551 W/m 13,6 C 19,7 C 8,0 km/h (2 Bft) 100,00 %
08.07.2016 09:44 19,8 C 66 % 1017,6 hPa 0,0 l/m 5,3 km/h (1 Bft) NO 44 2 min 0,000 mm 3,0 UV-I 568 W/m 13,3 C 19,8 C 8,0 km/h (2 Bft) 100,00 %
08.07.2016 09:46 20,1 C 64 % 1017,6 hPa 0,0 l/m 6,6 km/h (2 Bft) O-NO 57 2 min 0,000 mm 3,0 UV-I 575 W/m 13,1 C 20,0 C 9,7 km/h (2 Bft) 98,00 %
08.07.2016 09:48 20,2 C 63 % 1017,7 hPa 0,0 l/m 3,7 km/h (1 Bft) NO 37 2 min 0,000 mm 3,1 UV-I 602 W/m 12,9 C 20,2 C 6,4 km/h (2 Bft) 97,37 %
08.07.2016 09:50 20,2 C 63 % 1017,6 hPa 0,0 l/m 6,6 km/h (2 Bft) O-NO 58 2 min 0,000 mm 3,2 UV-I 639 W/m 12,9 C 20,1 C 8,0 km/h (2 Bft) 100,00 %
08.07.2016 09:52 20,1 C 62 % 1017,6 hPa 0,0 l/m 5,4 km/h (1 Bft) O-NO 61 2 min 0,000 mm 2,9 UV-I 584 W/m 12,6 C 20,1 C 8,0 km/h (2 Bft) 98,11 %
08.07.2016 09:54 19,9 C 63 % 1017,5 hPa 0,0 l/m 7,7 km/h (2 Bft) O-NO 76 2 min 0,000 mm 2,7 UV-I 401 W/m 12,6 C 19,4 C 14,5 km/h (3 Bft) 100,00 %
08.07.2016 09:56 19,9 C 63 % 1017,6 hPa 0,0 l/m 8,1 km/h (2 Bft) O-NO 75 2 min 0,000 mm 3,1 UV-I 460 W/m 12,6 C 19,2 C 14,5 km/h (3 Bft) 100,00 %
08.07.2016 09:58 19,9 C 65 % 1017,6 hPa 0,0 l/m 5,8 km/h (2 Bft) NO 39 2 min 0,000 mm 3,1 UV-I 545 W/m 13,1 C 19,9 C 8,0 km/h (2 Bft) 100,00 %
08.07.2016 10:00 19,9 C 64 % 1017,6 hPa 0,0 l/m 4,7 km/h (1 Bft) O-NO 69 2 min 0,305 mm 3,1 UV-I 564 W/m 12,9 C 19,9 C 9,7 km/h (2 Bft) 100,00 %
08.07.2016 10:02 20,1 C 64 % 1017,6 hPa 0,0 l/m 7,1 km/h (2 Bft) O-NO 76 2 min 0,000 mm 3,1 UV-I 516 W/m 13,1 C 19,8 C 11,3 km/h (2 Bft) 100,00 %
08.07.2016 10:04 20,2 C 63 % 1017,6 hPa 0,0 l/m 7,1 km/h (2 Bft) NO 38 2 min 0,000 mm 2,8 UV-I 513 W/m 12,9 C 19,9 C 11,3 km/h (2 Bft) 100,00 %
08.07.2016 10:06 20,2 C 66 % 1017,5 hPa 0,0 l/m 4,6 km/h (1 Bft) NO 37 2 min 0,000 mm 2,6 UV-I 391 W/m 13,6 C 20,2 C 6,4 km/h (2 Bft) 100,00 %
08.07.2016 10:08 20,2 C 63 % 1017,5 hPa 0,0 l/m 6,4 km/h (2 Bft) O-NO 61 2 min 0,000 mm 2,8 UV-I 465 W/m 12,9 C 20,2 C 9,7 km/h (2 Bft) 100,00 %
08.07.2016 10:10 20,2 C 62 % 1017,5 hPa 0,0 l/m 5,7 km/h (1 Bft) O-NO 67 2 min 0,000 mm 2,8 UV-I 431 W/m 12,7 C 20,2 C 8,0 km/h (2 Bft) 97,62 %
08.07.2016 10:12 20,2 C 63 % 1017,4 hPa 0,0 l/m 4,6 km/h (1 Bft) O-SO 102 2 min 0,000 mm 2,8 UV-I 463 W/m 12,9 C 20,2 C 6,4 km/h (2 Bft) 100,00 %
08.07.2016 10:14 20,2 C 62 % 1017,5 hPa 0,0 l/m 7,3 km/h (2 Bft) O 86 2 min 0,000 mm 3,2 UV-I 512 W/m 12,7 C 19,8 C 11,3 km/h (2 Bft) 100,00 %
08.07.2016 10:16 20,3 C 63 % 1017,4 hPa 0,0 l/m 6,3 km/h (2 Bft) O 80 2 min 0,000 mm 3,4 UV-I 564 W/m 13,0 C 20,3 C 9,7 km/h (2 Bft) 96,00 %
08.07.2016 10:18 20,5 C 63 % 1017,4 hPa 0,0 l/m 6,0 km/h (2 Bft) O-NO 58 2 min 0,000 mm 3,7 UV-I 635 W/m 13,2 C 20,5 C 8,0 km/h (2 Bft) 100,00 %
08.07.2016 10:20 20,6 C 60 % 1017,3 hPa 0,0 l/m 6,1 km/h (2 Bft) O-NO 78 2 min 0,000 mm 3,9 UV-I 679 W/m 12,6 C 20,6 C 9,7 km/h (2 Bft) 100,00 %
08.07.2016 10:22 20,6 C 63 % 1017,4 hPa 0,0 l/m 5,0 km/h (1 Bft) NO 43 2 min 0,000 mm 3,9 UV-I 696 W/m 13,3 C 20,6 C 9,7 km/h (2 Bft) 97,14 %
08.07.2016 10:24 20,8 C 62 % 1017,4 hPa 0,0 l/m 4,7 km/h (1 Bft) O-NO 64 2 min 0,000 mm 3,9 UV-I 648 W/m 13,2 C 20,8 C 9,7 km/h (2 Bft) 100,00 %
08.07.2016 10:26 21,0 C 62 % 1017,5 hPa 0,0 l/m 4,2 km/h (1 Bft) O 90 2 min 0,000 mm 4,0 UV-I 708 W/m 13,4 C 21,0 C 8,0 km/h (2 Bft) 100,00 %
08.07.2016 10:28 21,1 C 62 % 1017,4 hPa 0,0 l/m 5,1 km/h (1 Bft) O-NO 61 2 min 0,000 mm 4,1 UV-I 696 W/m 13,5 C 21,1 C 9,7 km/h (2 Bft) 100,00 %
08.07.2016 10:30 21,1 C 59 % 1017,4 hPa 0,0 l/m 3,5 km/h (1 Bft) N-NO 26 2 min 0,000 mm 4,2 UV-I 714 W/m 12,8 C 21,1 C 6,4 km/h (2 Bft) 100,00 %
08.07.2016 10:32 21,2 C 62 % 1017,4 hPa 0,0 l/m 5,5 km/h (1 Bft) NO 51 2 min 0,000 mm 4,2 UV-I 720 W/m 13,6 C 21,2 C 8,0 km/h (2 Bft) 97,87 %
08.07.2016 10:34 21,3 C 59 % 1017,4 hPa 0,0 l/m 5,4 km/h (1 Bft) N-NO 32 2 min 0,000 mm 4,3 UV-I 753 W/m 13,0 C 21,3 C 8,0 km/h (2 Bft) 98,00 %
08.07.2016 10:36 21,3 C 60 % 1017,4 hPa 0,0 l/m 6,3 km/h (2 Bft) O-NO 67 2 min 0,000 mm 4,5 UV-I 771 W/m 13,2 C 21,3 C 11,3 km/h (2 Bft) 100,00 %
08.07.2016 10:38 21,3 C 59 % 1017,4 hPa 0,0 l/m 5,8 km/h (2 Bft) O-NO 68 2 min 0,000 mm 4,5 UV-I 750 W/m 13,0 C 21,3 C 8,0 km/h (2 Bft) 100,00 %
08.07.2016 10:40 21,2 C 59 % 1017,4 hPa 0,0 l/m 3,8 km/h (1 Bft) O-SO 114 2 min 0,000 mm 4,5 UV-I 756 W/m 12,9 C 21,2 C 8,0 km/h (2 Bft) 97,37 %
08.07.2016 10:42 21,2 C 64 % 1017,4 hPa 0,0 l/m 4,0 km/h (1 Bft) N-NO 24 2 min 0,000 mm 4,6 UV-I 774 W/m 14,1 C 21,2 C 9,7 km/h (2 Bft) 98,11 %
08.07.2016 10:44 21,4 C 63 % 1017,4 hPa 0,0 l/m 4,9 km/h (1 Bft) N-NO 26 2 min 0,000 mm 4,5 UV-I 729 W/m 14,1 C 21,4 C 9,7 km/h (2 Bft) 97,56 %
08.07.2016 10:46 21,6 C 58 % 1017,4 hPa 0,0 l/m 5,4 km/h (1 Bft) NO 50 2 min 0,000 mm 4,4 UV-I 689 W/m 13,0 C 21,6 C 9,7 km/h (2 Bft) 98,00 %
08.07.2016 10:48 21,7 C 62 % 1017,4 hPa 0,0 l/m 6,1 km/h (2 Bft) NO 44 2 min 0,000 mm 4,5 UV-I 699 W/m 14,1 C 21,7 C 11,3 km/h (2 Bft) 98,00 %
08.07.2016 10:50 21,7 C 63 % 1017,3 hPa 0,0 l/m 4,9 km/h (1 Bft) NO 36 2 min 0,000 mm 4,4 UV-I 743 W/m 14,3 C 21,7 C 9,7 km/h (2 Bft) 97,62 %
08.07.2016 10:52 21,6 C 59 % 1017,3 hPa 0,0 l/m 3,1 km/h (1 Bft) NO 42 2 min 0,000 mm 4,4 UV-I 744 W/m 13,2 C 21,6 C 8,0 km/h (2 Bft) 97,87 %
08.07.2016 10:54 21,6 C 61 % 1017,3 hPa 0,0 l/m 4,3 km/h (1 Bft) N-NO 30 2 min 0,000 mm 4,7 UV-I 727 W/m 13,7 C 21,6 C 9,7 km/h (2 Bft) 98,00 %
08.07.2016 10:56 21,7 C 63 % 1017,2 hPa 0,0 l/m 7,4 km/h (2 Bft) NO 35 2 min 0,000 mm 4,8 UV-I 705 W/m 14,3 C 21,3 C 9,7 km/h (2 Bft) 97,56 %
08.07.2016 10:58 21,8 C 62 % 1017,2 hPa 0,0 l/m 6,1 km/h (2 Bft) N 9 2 min 0,000 mm 4,4 UV-I 673 W/m 14,2 C 21,8 C 9,7 km/h (2 Bft) 95,74 %
08.07.2016 11:00 21,9 C 64 % 1017,2 hPa 0,0 l/m 4,0 km/h (1 Bft) NO 49 2 min 0,406 mm 4,5 UV-I 587 W/m 14,8 C 21,9 C 11,3 km/h (2 Bft) 94,00 %
08.07.2016 11:02 21,9 C 58 % 1017,2 hPa 0,0 l/m 4,7 km/h (1 Bft) O-NO 61 2 min 0,000 mm 4,6 UV-I 704 W/m 13,3 C 21,9 C 8,0 km/h (2 Bft) 97,56 %
08.07.2016 11:04 21,8 C 61 % 1017,1 hPa 0,0 l/m 5,0 km/h (1 Bft) N-NO 15 2 min 0,000 mm 4,4 UV-I 661 W/m 13,9 C 21,8 C 11,3 km/h (2 Bft) 97,87 %
08.07.2016 11:06 21,8 C 61 % 1017,2 hPa 0,0 l/m 4,2 km/h (1 Bft) NO 38 2 min 0,000 mm 4,2 UV-I 620 W/m 13,9 C 21,8 C 6,4 km/h (2 Bft) 98,21 %
08.07.2016 11:08 21,9 C 59 % 1017,1 hPa 0,0 l/m 4,8 km/h (1 Bft) NO 56 2 min 0,000 mm 2,9 UV-I 603 W/m 13,5 C 21,9 C 8,0 km/h (2 Bft) 98,00 %
08.07.2016 11:10 21,7 C 60 % 1017,1 hPa 0,0 l/m 5,8 km/h (2 Bft) NO 41 0 min 0,000 mm 3,3 UV-I 296 W/m 13,6 C 21,7 C 8,0 km/h (2 Bft) 94,74 %
08.07.2016 11:12 21,6 C 63 % 1017,1 hPa 0,0 l/m 3,8 km/h (1 Bft) O-NO 70 2 min 0,000 mm 4,9 UV-I 670 W/m 14,2 C 21,6 C 6,4 km/h (2 Bft) 94,64 %
08.07.2016 11:14 21,7 C 61 % 1017,1 hPa 0,0 l/m 3,5 km/h (1 Bft) NO 49 2 min 0,000 mm 4,8 UV-I 736 W/m 13,8 C 21,7 C 6,4 km/h (2 Bft) 97,87 %
08.07.2016 11:16 21,8 C 60 % 1017,2 hPa 0,0 l/m 2,7 km/h (1 Bft) N-NO 32 2 min 0,000 mm 5,1 UV-I 755 W/m 13,7 C 21,8 C 4,8 km/h (1 Bft) 97,56 %
08.07.2016 11:18 22,1 C 64 % 1017,1 hPa 0,0 l/m 6,8 km/h (2 Bft) NO 50 2 min 0,000 mm 5,2 UV-I 860 W/m 15,0 C 22,0 C 9,7 km/h (2 Bft) 100,00 %
08.07.2016 11:20 22,0 C 58 % 1017,1 hPa 0,0 l/m 2,6 km/h (1 Bft) O 82 2 min 0,000 mm 5,4 UV-I 855 W/m 13,3 C 22,0 C 4,8 km/h (1 Bft) 100,00 %
08.07.2016 11:22 22,0 C 60 % 1017,1 hPa 0,0 l/m 1,8 km/h (1 Bft) O-NO 57 2 min 0,000 mm 5,4 UV-I 816 W/m 13,9 C 22,0 C 4,8 km/h (1 Bft) 95,45 %
08.07.2016 11:24 22,2 C 61 % 1017,1 hPa 0,0 l/m 5,4 km/h (1 Bft) NO 55 2 min 0,000 mm 5,3 UV-I 771 W/m 14,3 C 22,2 C 12,9 km/h (3 Bft) 100,00 %
08.07.2016 11:26 22,4 C 60 % 1017,2 hPa 0,0 l/m 5,4 km/h (1 Bft) O-NO 60 2 min 0,000 mm 5,1 UV-I 787 W/m 14,2 C 22,4 C 9,7 km/h (2 Bft) 100,00 %
08.07.2016 11:28 22,4 C 56 % 1017,1 hPa 0,0 l/m 7,2 km/h (2 Bft) NO 53 2 min 0,000 mm 4,1 UV-I 729 W/m 13,2 C 22,1 C 9,7 km/h (2 Bft) 100,00 %
08.07.2016 11:30 22,3 C 59 % 1017,1 hPa 0,0 l/m 4,4 km/h (1 Bft) O-NO 61 2 min 0,000 mm 4,1 UV-I 484 W/m 13,9 C 22,3 C 8,0 km/h (2 Bft) 100,00 %
08.07.2016 11:32 22,3 C 59 % 1017,0 hPa 0,0 l/m 2,7 km/h (1 Bft) NO 44 2 min 0,000 mm 4,3 UV-I 599 W/m 13,9 C 22,3 C 4,8 km/h (1 Bft) 100,00 %
08.07.2016 11:34 22,4 C 59 % 1017,1 hPa 0,0 l/m 1,3 km/h (1 Bft) NO 44 2 min 0,000 mm 4,8 UV-I 652 W/m 14,0 C 22,4 C 3,2 km/h (1 Bft) 100,00 %
08.07.2016 11:36 22,6 C 55 % 1017,0 hPa 0,0 l/m 6,0 km/h (2 Bft) O-NO 74 2 min 0,000 mm 4,7 UV-I 697 W/m 13,1 C 22,6 C 11,3 km/h (2 Bft) 100,00 %
08.07.2016 11:38 22,7 C 55 % 1017,0 hPa 0,0 l/m 1,4 km/h (1 Bft) S-SO 147 2 min 0,000 mm 5,2 UV-I 730 W/m 13,2 C 22,7 C 3,2 km/h (1 Bft) 100,00 %
08.07.2016 11:40 22,7 C 55 % 1017,0 hPa 0,0 l/m 1,3 km/h (1 Bft) S-SO 152 2 min 0,000 mm 5,1 UV-I 760 W/m 13,2 C 22,7 C 3,2 km/h (1 Bft) 98,00 %
08.07.2016 11:42 22,7 C 55 % 1017,0 hPa 0,0 l/m 4,0 km/h (1 Bft) NO 44 2 min 0,000 mm 4,8 UV-I 762 W/m 13,2 C 22,7 C 11,3 km/h (2 Bft) 100,00 %
08.07.2016 11:44 22,7 C 56 % 1017,0 hPa 0,0 l/m 5,9 km/h (2 Bft) NO 46 2 min 0,000 mm 4,7 UV-I 591 W/m 13,5 C 22,7 C 12,9 km/h (3 Bft) 100,00 %
08.07.2016 11:46 22,9 C 57 % 1017,0 hPa 0,0 l/m 5,7 km/h (1 Bft) N-NO 22 2 min 0,000 mm 5,6 UV-I 799 W/m 13,9 C 22,9 C 8,0 km/h (2 Bft) 98,11 %
08.07.2016 11:48 22,8 C 53 % 1017,0 hPa 0,0 l/m 2,5 km/h (1 Bft) N 9 2 min 0,000 mm 5,5 UV-I 794 W/m 12,7 C 22,8 C 6,4 km/h (2 Bft) 100,00 %
08.07.2016 11:50 22,7 C 54 % 1017,0 hPa 0,0 l/m 2,6 km/h (1 Bft) N-NO 20 2 min 0,000 mm 5,7 UV-I 793 W/m 12,9 C 22,7 C 6,4 km/h (2 Bft) 100,00 %
08.07.2016 11:52 22,9 C 58 % 1016,9 hPa 0,0 l/m 4,2 km/h (1 Bft) O 82 2 min 0,000 mm 5,9 UV-I 855 W/m 14,2 C 22,9 C 9,7 km/h (2 Bft) 100,00 %
08.07.2016 11:54 23,1 C 56 % 1016,9 hPa 0,0 l/m 2,5 km/h (1 Bft) N-NO 28 2 min 0,000 mm 6,2 UV-I 884 W/m 13,8 C 23,1 C 4,8 km/h (1 Bft) 100,00 %
08.07.2016 11:56 23,3 C 57 % 1016,9 hPa 0,0 l/m 7,0 km/h (2 Bft) N-NW 334 2 min 0,000 mm 6,2 UV-I 908 W/m 14,3 C 23,1 C 16,1 km/h (3 Bft) 97,56 %
08.07.2016 11:58 23,3 C 59 % 1016,8 hPa 0,0 l/m 3,3 km/h (1 Bft) NW 319 2 min 0,000 mm 6,1 UV-I 875 W/m 14,8 C 23,3 C 8,0 km/h (2 Bft) 100,00 %
08.07.2016 12:00 23,1 C 53 % 1016,9 hPa 0,0 l/m 1,3 km/h (1 Bft) N-NO 12 2 min 0,457 mm 6,2 UV-I 918 W/m 13,0 C 23,1 C 3,2 km/h (1 Bft) 100,00 %
08.07.2016 12:02 23,2 C 58 % 1016,9 hPa 0,0 l/m 4,4 km/h (1 Bft) NO 36 2 min 0,000 mm 6,2 UV-I 905 W/m 14,5 C 23,2 C 9,7 km/h (2 Bft) 100,00 %
08.07.2016 12:04 23,3 C 53 % 1016,8 hPa 0,0 l/m 5,4 km/h (1 Bft) N 11 2 min 0,000 mm 6,1 UV-I 888 W/m 13,2 C 23,3 C 9,7 km/h (2 Bft) 98,08 %
08.07.2016 12:06 23,6 C 56 % 1016,8 hPa 0,0 l/m 9,6 km/h (2 Bft) N-NO 28 2 min 0,000 mm 5,9 UV-I 802 W/m 14,3 C 22,7 C 16,1 km/h (3 Bft) 100,00 %
08.07.2016 12:08 23,6 C 53 % 1016,8 hPa 0,0 l/m 3,6 km/h (1 Bft) NO 34 2 min 0,000 mm 6,3 UV-I 873 W/m 13,4 C 23,6 C 8,0 km/h (2 Bft) 100,00 %
08.07.2016 12:10 23,6 C 53 % 1016,8 hPa 0,0 l/m 2,9 km/h (1 Bft) N-NO 17 2 min 0,000 mm 6,4 UV-I 938 W/m 13,4 C 23,6 C 8,0 km/h (2 Bft) 100,00 %
08.07.2016 12:12 23,6 C 59 % 1016,8 hPa 0,0 l/m 3,5 km/h (1 Bft) O-SO 107 2 min 0,000 mm 5,7 UV-I 874 W/m 15,1 C 23,6 C 6,4 km/h (2 Bft) 100,00 %
08.07.2016 12:14 23,6 C 53 % 1016,8 hPa 0,0 l/m 2,4 km/h (1 Bft) NW 313 2 min 0,000 mm 6,2 UV-I 959 W/m 13,4 C 23,6 C 4,8 km/h (1 Bft) 100,00 %
08.07.2016 12:16 23,8 C 54 % 1016,8 hPa 0,0 l/m 2,4 km/h (1 Bft) N-NW 343 2 min 0,000 mm 5,3 UV-I 835 W/m 13,9 C 23,8 C 6,4 km/h (2 Bft) 98,00 %
08.07.2016 12:18 23,7 C 56 % 1016,8 hPa 0,0 l/m 3,9 km/h (1 Bft) N-NO 21 2 min 0,000 mm 4,1 UV-I 542 W/m 14,4 C 23,7 C 9,7 km/h (2 Bft) 100,00 %
08.07.2016 12:20 23,5 C 53 % 1016,8 hPa 0,0 l/m 5,2 km/h (1 Bft) N-NO 15 0 min 0,000 mm 3,3 UV-I 388 W/m 13,4 C 23,5 C 9,7 km/h (2 Bft) 100,00 %
08.07.2016 12:22 23,2 C 49 % 1016,7 hPa 0,0 l/m 2,4 km/h (1 Bft) N-NO 15 0 min 0,000 mm 3,2 UV-I 379 W/m 11,9 C 23,2 C 4,8 km/h (1 Bft) 100,00 %
08.07.2016 12:24 23,0 C 52 % 1016,7 hPa 0,0 l/m 1,5 km/h (1 Bft) N-NO 15 0 min 0,000 mm 3,2 UV-I 362 W/m 12,6 C 23,0 C 4,8 km/h (1 Bft) 98,00 %
08.07.2016 12:26 23,0 C 54 % 1016,7 hPa 0,0 l/m 5,0 km/h (1 Bft) NO 34 0 min 0,000 mm 4,0 UV-I 463 W/m 13,2 C 23,0 C 8,0 km/h (2 Bft) 100,00 %
08.07.2016 12:28 23,1 C 54 % 1016,7 hPa 0,0 l/m 1,9 km/h (1 Bft) N-NO 27 2 min 0,000 mm 5,2 UV-I 622 W/m 13,3 C 23,1 C 4,8 km/h (1 Bft) 100,00 %
08.07.2016 12:30 23,3 C 53 % 1016,7 hPa 0,0 l/m 1,1 km/h (1 Bft) N-NW 333 2 min 0,000 mm 5,2 UV-I 766 W/m 13,2 C 23,3 C 3,2 km/h (1 Bft) 97,96 %
08.07.2016 12:32 23,4 C 52 % 1016,6 hPa 0,0 l/m 0,3 km/h (0 Bft) N-NW 342 2 min 0,000 mm 5,4 UV-I 763 W/m 13,0 C 23,4 C 1,6 km/h (1 Bft) 100,00 %
08.07.2016 12:34 23,5 C 52 % 1016,6 hPa 0,0 l/m 3,2 km/h (1 Bft) NO 40 2 min 0,000 mm 5,3 UV-I 735 W/m 13,1 C 23,5 C 6,4 km/h (2 Bft) 100,00 %
08.07.2016 12:36 23,7 C 55 % 1016,6 hPa 0,0 l/m 1,3 km/h (1 Bft) NO 55 2 min 0,000 mm 5,4 UV-I 741 W/m 14,1 C 23,7 C 3,2 km/h (1 Bft) 100,00 %
08.07.2016 12:38 23,9 C 54 % 1016,5 hPa 0,0 l/m 1,3 km/h (1 Bft) NO 44 2 min 0,000 mm 5,3 UV-I 736 W/m 14,0 C 23,9 C 3,2 km/h (1 Bft) 97,44 %
08.07.2016 12:40 23,9 C 57 % 1016,5 hPa 0,0 l/m 1,8 km/h (1 Bft) N 360 2 min 0,000 mm 5,7 UV-I 791 W/m 14,9 C 23,9 C 4,8 km/h (1 Bft) 96,49 %
08.07.2016 12:42 24,1 C 56 % 1016,5 hPa 0,0 l/m 3,9 km/h (1 Bft) N-NO 31 2 min 0,000 mm 5,7 UV-I 801 W/m 14,8 C 24,1 C 6,4 km/h (2 Bft) 98,00 %
08.07.2016 12:44 24,1 C 56 % 1016,5 hPa 0,0 l/m 4,8 km/h (1 Bft) O-NO 57 2 min 0,000 mm 6,2 UV-I 891 W/m 14,8 C 24,1 C 8,0 km/h (2 Bft) 100,00 %
08.07.2016 12:46 24,2 C 54 % 1016,5 hPa 0,0 l/m 7,1 km/h (2 Bft) N-NO 29 2 min 0,000 mm 6,3 UV-I 987 W/m 14,3 C 24,0 C 9,7 km/h (2 Bft) 97,06 %
08.07.2016 12:48 24,2 C 50 % 1016,4 hPa 0,0 l/m 4,9 km/h (1 Bft) O-NO 65 2 min 0,000 mm 5,7 UV-I 773 W/m 13,1 C 24,2 C 8,0 km/h (2 Bft) 97,87 %
08.07.2016 12:50 24,1 C 49 % 1016,4 hPa 0,0 l/m 3,6 km/h (1 Bft) O-NO 73 2 min 0,000 mm 5,7 UV-I 812 W/m 12,7 C 24,1 C 6,4 km/h (2 Bft) 97,37 %
08.07.2016 12:52 24,1 C 48 % 1016,4 hPa 0,0 l/m 4,5 km/h (1 Bft) O-NO 77 2 min 0,000 mm 4,9 UV-I 857 W/m 12,4 C 24,1 C 11,3 km/h (2 Bft) 98,00 %
08.07.2016 12:54 24,1 C 49 % 1016,3 hPa 0,0 l/m 3,3 km/h (1 Bft) O 84 2 min 0,000 mm 5,1 UV-I 798 W/m 12,7 C 24,1 C 6,4 km/h (2 Bft) 98,11 %
08.07.2016 12:56 24,2 C 51 % 1016,3 hPa 0,0 l/m 3,6 km/h (1 Bft) SO 142 2 min 0,000 mm 6,0 UV-I 749 W/m 13,4 C 24,2 C 6,4 km/h (2 Bft) 97,37 %
08.07.2016 12:58 24,4 C 49 % 1016,2 hPa 0,0 l/m 5,4 km/h (1 Bft) O 98 2 min 0,000 mm 6,7 UV-I 948 W/m 13,0 C 24,4 C 12,9 km/h (3 Bft) 94,00 %
08.07.2016 13:00 24,4 C 47 % 1016,3 hPa 0,0 l/m 4,6 km/h (1 Bft) S 175 2 min 0,483 mm 6,1 UV-I 949 W/m 12,3 C 24,4 C 9,7 km/h (2 Bft) 95,45 %
08.07.2016 13:02 24,3 C 52 % 1016,3 hPa 0,0 l/m 6,1 km/h (2 Bft) SW 224 2 min 0,000 mm 5,7 UV-I 775 W/m 13,8 C 24,3 C 9,7 km/h (2 Bft) 95,74 %
08.07.2016 13:04 24,2 C 51 % 1016,3 hPa 0,0 l/m 2,2 km/h (1 Bft) W-SW 258 2 min 0,000 mm 6,4 UV-I 833 W/m 13,4 C 24,2 C 4,8 km/h (1 Bft) 98,00 %
08.07.2016 13:06 24,3 C 52 % 1016,2 hPa 0,0 l/m 2,0 km/h (1 Bft) NW 320 2 min 0,000 mm 6,7 UV-I 971 W/m 13,8 C 24,3 C 4,8 km/h (1 Bft) 97,87 %
08.07.2016 13:08 24,5 C 55 % 1016,2 hPa 0,0 l/m 7,1 km/h (2 Bft) O-NO 62 2 min 0,000 mm 6,7 UV-I 946 W/m 14,9 C 24,3 C 11,3 km/h (2 Bft) 97,73 %
08.07.2016 13:10 24,7 C 47 % 1016,2 hPa 0,0 l/m 7,7 km/h (2 Bft) NO 47 2 min 0,000 mm 6,6 UV-I 918 W/m 12,6 C 24,4 C 12,9 km/h (3 Bft) 97,73 %
08.07.2016 13:12 24,6 C 49 % 1016,2 hPa 0,0 l/m 4,9 km/h (1 Bft) O-NO 61 2 min 0,000 mm 6,4 UV-I 904 W/m 13,2 C 24,6 C 9,7 km/h (2 Bft) 100,00 %
08.07.2016 13:14 24,4 C 48 % 1016,3 hPa 0,0 l/m 1,3 km/h (1 Bft) O-NO 76 2 min 0,000 mm 6,4 UV-I 898 W/m 12,7 C 24,4 C 3,2 km/h (1 Bft) 100,00 %
08.07.2016 13:16 24,4 C 51 % 1016,3 hPa 0,0 l/m 1,5 km/h (1 Bft) N 9 2 min 0,000 mm 5,4 UV-I 890 W/m 13,6 C 24,4 C 4,8 km/h (1 Bft) 100,00 %
08.07.2016 13:18 24,5 C 50 % 1016,3 hPa 0,0 l/m 1,9 km/h (1 Bft) N-NW 328 2 min 0,000 mm 6,2 UV-I 888 W/m 13,4 C 24,5 C 4,8 km/h (1 Bft) 100,00 %
08.07.2016 13:20 24,6 C 49 % 1016,2 hPa 0,0 l/m 0,9 km/h (0 Bft) N-NW 340 2 min 0,000 mm 6,4 UV-I 891 W/m 13,2 C 24,6 C 1,6 km/h (1 Bft) 98,21 %
08.07.2016 13:22 24,7 C 55 % 1016,3 hPa 0,0 l/m 1,5 km/h (1 Bft) NW 325 2 min 0,000 mm 6,5 UV-I 891 W/m 15,0 C 24,7 C 3,2 km/h (1 Bft) 100,00 %
08.07.2016 13:24 24,7 C 48 % 1016,2 hPa 0,0 l/m 1,2 km/h (1 Bft) NW 323 2 min 0,000 mm 6,4 UV-I 887 W/m 12,9 C 24,7 C 3,2 km/h (1 Bft) 100,00 %
08.07.2016 13:26 24,6 C 46 % 1016,2 hPa 0,0 l/m 3,1 km/h (1 Bft) W 264 2 min 0,000 mm 6,4 UV-I 883 W/m 12,2 C 24,6 C 9,7 km/h (2 Bft) 100,00 %
08.07.2016 13:28 24,6 C 46 % 1016,2 hPa 0,0 l/m 6,0 km/h (2 Bft) S-SO 161 2 min 0,000 mm 6,4 UV-I 884 W/m 12,2 C 24,6 C 9,7 km/h (2 Bft) 100,00 %
08.07.2016 13:30 24,6 C 50 % 1016,1 hPa 0,0 l/m 4,1 km/h (1 Bft) S-SW 192 2 min 0,000 mm 6,1 UV-I 886 W/m 13,5 C 24,6 C 8,0 km/h (2 Bft) 100,00 %
08.07.2016 13:32 24,8 C 50 % 1016,1 hPa 0,0 l/m 3,2 km/h (1 Bft) NO 51 2 min 0,000 mm 6,4 UV-I 884 W/m 13,7 C 24,8 C 4,8 km/h (1 Bft) 100,00 %
08.07.2016 13:34 24,9 C 49 % 1016,1 hPa 0,0 l/m 1,4 km/h (1 Bft) N-NO 17 2 min 0,000 mm 6,4 UV-I 883 W/m 13,4 C 24,9 C 4,8 km/h (1 Bft) 100,00 %
08.07.2016 13:36 25,1 C 53 % 1016,1 hPa 0,0 l/m 3,6 km/h (1 Bft) N-NO 22 2 min 0,000 mm 6,4 UV-I 882 W/m 14,8 C 25,1 C 6,4 km/h (2 Bft) 100,00 %
08.07.2016 13:38 25,1 C 47 % 1016,1 hPa 0,0 l/m 5,3 km/h (1 Bft) N-NW 327 2 min 0,000 mm 6,4 UV-I 882 W/m 13,0 C 25,1 C 9,7 km/h (2 Bft) 95,74 %
08.07.2016 13:40 24,9 C 47 % 1016,0 hPa 0,0 l/m 3,2 km/h (1 Bft) O-NO 64 2 min 0,000 mm 6,4 UV-I 883 W/m 12,8 C 24,9 C 6,4 km/h (2 Bft) 96,00 %
08.07.2016 13:42 24,8 C 48 % 1016,1 hPa 0,0 l/m 4,6 km/h (1 Bft) O 92 2 min 0,000 mm 6,4 UV-I 883 W/m 13,0 C 24,8 C 6,4 km/h (2 Bft) 100,00 %
08.07.2016 13:44 24,9 C 50 % 1016,0 hPa 0,0 l/m 1,8 km/h (1 Bft) O 99 2 min 0,000 mm 6,3 UV-I 883 W/m 13,7 C 24,9 C 4,8 km/h (1 Bft) 98,21 %
08.07.2016 13:46 25,2 C 48 % 1016,1 hPa 0,0 l/m 4,4 km/h (1 Bft) NO 37 2 min 0,000 mm 6,3 UV-I 878 W/m 13,4 C 25,2 C 8,0 km/h (2 Bft) 100,00 %
08.07.2016 13:48 25,3 C 49 % 1016,1 hPa 0,0 l/m 4,6 km/h (1 Bft) N-NO 32 2 min 0,000 mm 6,3 UV-I 879 W/m 13,8 C 25,3 C 8,0 km/h (2 Bft) 100,00 %
08.07.2016 13:50 25,2 C 45 % 1016,0 hPa 0,0 l/m 2,0 km/h (1 Bft) N-NO 19 2 min 0,000 mm 6,3 UV-I 881 W/m 12,4 C 25,2 C 6,4 km/h (2 Bft) 100,00 %
08.07.2016 13:52 25,1 C 47 % 1016,0 hPa 0,0 l/m 3,3 km/h (1 Bft) N-NO 31 2 min 0,000 mm 6,3 UV-I 883 W/m 13,0 C 25,1 C 6,4 km/h (2 Bft) 100,00 %
08.07.2016 13:54 25,2 C 49 % 1015,9 hPa 0,0 l/m 3,7 km/h (1 Bft) W-NW 284 2 min 0,000 mm 6,3 UV-I 881 W/m 13,7 C 25,2 C 6,4 km/h (2 Bft) 100,00 %
08.07.2016 13:56 25,4 C 53 % 1015,9 hPa 0,0 l/m 0,9 km/h (0 Bft) N-NW 340 2 min 0,000 mm 6,2 UV-I 881 W/m 15,1 C 25,4 C 1,6 km/h (1 Bft) 97,56 %
08.07.2016 13:58 25,5 C 49 % 1015,9 hPa 0,0 l/m 1,8 km/h (1 Bft) N-NW 346 2 min 0,000 mm 6,1 UV-I 869 W/m 14,0 C 25,5 C 4,8 km/h (1 Bft) 98,00 %
08.07.2016 14:00 25,6 C 56 % 1015,9 hPa 0,0 l/m 4,4 km/h (1 Bft) NO 41 2 min 0,000 mm 6,1 UV-I 868 W/m 16,2 C 25,6 C 6,4 km/h (2 Bft) 100,00 %
08.07.2016 14:02 25,6 C 54 % 1015,8 hPa 0,0 l/m 3,3 km/h (1 Bft) NW 313 2 min 0,584 mm 6,0 UV-I 856 W/m 15,6 C 25,6 C 6,4 km/h (2 Bft) 100,00 %
08.07.2016 14:04 25,6 C 49 % 1015,8 hPa 0,0 l/m 2,4 km/h (1 Bft) W-NW 293 2 min 0,000 mm 6,1 UV-I 874 W/m 14,1 C 25,6 C 4,8 km/h (1 Bft) 100,00 %
08.07.2016 14:06 25,5 C 47 % 1015,9 hPa 0,0 l/m 1,5 km/h (1 Bft) W-NW 287 2 min 0,000 mm 6,0 UV-I 848 W/m 13,3 C 25,5 C 4,8 km/h (1 Bft) 100,00 %
08.07.2016 14:08 25,7 C 51 % 1015,8 hPa 0,0 l/m 1,6 km/h (1 Bft) S-SO 152 2 min 0,000 mm 6,0 UV-I 843 W/m 14,8 C 25,7 C 3,2 km/h (1 Bft) 100,00 %
08.07.2016 14:10 25,8 C 49 % 1015,8 hPa 0,0 l/m 3,0 km/h (1 Bft) O-SO 115 2 min 0,000 mm 6,1 UV-I 856 W/m 14,3 C 25,8 C 4,8 km/h (1 Bft) 98,31 %
08.07.2016 14:13 25,8 C 46 % 1015,7 hPa 0,0 l/m 2,0 km/h (1 Bft) N-NW 327 3 min 0,000 mm 6,2 UV-I 871 W/m 13,3 C 25,8 C 4,8 km/h (1 Bft) 100,00 %
08.07.2016 14:14 25,7 C 50 % 1015,7 hPa 0,0 l/m 0,9 km/h (0 Bft) W 262 1 min 0,000 mm 6,2 UV-I 878 W/m 14,5 C 25,7 C 1,6 km/h (1 Bft) 100,00 %
08.07.2016 14:16 25,6 C 46 % 1015,8 hPa 0,0 l/m 5,2 km/h (1 Bft) W-SW 240 2 min 0,000 mm 6,1 UV-I 865 W/m 13,1 C 25,6 C 8,0 km/h (2 Bft) 98,11 %
08.07.2016 14:18 25,6 C 48 % 1015,7 hPa 0,0 l/m 3,4 km/h (1 Bft) SW 215 2 min 0,000 mm 6,0 UV-I 852 W/m 13,8 C 25,6 C 6,4 km/h (2 Bft) 98,00 %
08.07.2016 14:20 25,7 C 51 % 1015,8 hPa 0,0 l/m 2,4 km/h (1 Bft) W 281 2 min 0,000 mm 6,1 UV-I 855 W/m 14,8 C 25,7 C 6,4 km/h (2 Bft) 97,56 %
08.07.2016 14:22 26,1 C 45 % 1015,8 hPa 0,0 l/m 5,3 km/h (1 Bft) S-SO 149 2 min 0,000 mm 6,1 UV-I 871 W/m 13,2 C 26,1 C 12,9 km/h (3 Bft) 100,00 %
08.07.2016 14:24 26,2 C 44 % 1015,7 hPa 0,0 l/m 7,3 km/h (2 Bft) SW 220 2 min 0,000 mm 6,1 UV-I 864 W/m 13,0 C 26,0 C 12,9 km/h (3 Bft) 98,00 %
08.07.2016 14:26 26,2 C 43 % 1015,7 hPa 0,0 l/m 6,9 km/h (2 Bft) S 173 2 min 0,000 mm 6,0 UV-I 860 W/m 12,6 C 26,1 C 12,9 km/h (3 Bft) 97,56 %
08.07.2016 14:28 26,2 C 42 % 1015,7 hPa 0,0 l/m 5,0 km/h (1 Bft) W-SW 243 2 min 0,000 mm 5,9 UV-I 854 W/m 12,3 C 26,2 C 12,9 km/h (3 Bft) 97,73 %
08.07.2016 14:30 26,0 C 40 % 1015,6 hPa 0,0 l/m 1,8 km/h (1 Bft) W-SW 243 2 min 0,000 mm 5,9 UV-I 855 W/m 11,3 C 26,0 C 3,2 km/h (1 Bft) 96,00 %
08.07.2016 14:32 26,0 C 43 % 1015,6 hPa 0,0 l/m 3,6 km/h (1 Bft) S 189 2 min 0,000 mm 5,8 UV-I 851 W/m 12,4 C 26,0 C 8,0 km/h (2 Bft) 96,00 %
08.07.2016 14:34 26,0 C 44 % 1015,6 hPa 0,0 l/m 7,2 km/h (2 Bft) S 182 2 min 0,000 mm 5,8 UV-I 850 W/m 12,8 C 25,8 C 11,3 km/h (2 Bft) 97,56 %
08.07.2016 14:36 26,0 C 46 % 1015,6 hPa 0,0 l/m 8,6 km/h (2 Bft) W-SW 254 2 min 0,000 mm 5,8 UV-I 846 W/m 13,5 C 25,5 C 16,1 km/h (3 Bft) 98,11 %
08.07.2016 14:38 26,2 C 45 % 1015,6 hPa 0,0 l/m 4,6 km/h (1 Bft) W-SW 258 2 min 0,000 mm 5,7 UV-I 843 W/m 13,3 C 26,2 C 6,4 km/h (2 Bft) 96,67 %
08.07.2016 14:40 26,2 C 46 % 1015,6 hPa 0,0 l/m 3,0 km/h (1 Bft) S-SW 194 2 min 0,000 mm 5,7 UV-I 838 W/m 13,6 C 26,2 C 4,8 km/h (1 Bft) 97,01 %
08.07.2016 14:42 26,7 C 45 % 1015,5 hPa 0,0 l/m 1,7 km/h (1 Bft) W-SW 247 2 min 0,000 mm 5,7 UV-I 839 W/m 13,8 C 26,7 C 4,8 km/h (1 Bft) 100,00 %
08.07.2016 14:44 26,8 C 41 % 1015,6 hPa 0,0 l/m 9,9 km/h (2 Bft) W 280 2 min 0,000 mm 5,7 UV-I 841 W/m 12,4 C 26,2 C 16,1 km/h (3 Bft) 96,23 %
08.07.2016 14:46 26,8 C 41 % 1015,5 hPa 0,0 l/m 7,9 km/h (2 Bft) NW 306 2 min 0,000 mm 5,6 UV-I 838 W/m 12,4 C 26,5 C 14,5 km/h (3 Bft) 97,87 %
08.07.2016 14:48 26,6 C 41 % 1015,5 hPa 0,0 l/m 6,0 km/h (2 Bft) W-NW 290 2 min 0,000 mm 5,6 UV-I 837 W/m 12,2 C 26,6 C 12,9 km/h (3 Bft) 95,74 %
08.07.2016 14:50 26,5 C 42 % 1015,5 hPa 0,0 l/m 6,0 km/h (2 Bft) W 261 2 min 0,000 mm 5,6 UV-I 832 W/m 12,5 C 26,5 C 14,5 km/h (3 Bft) 98,00 %
08.07.2016 14:52 26,5 C 41 % 1015,5 hPa 0,0 l/m 9,4 km/h (2 Bft) W 264 2 min 0,000 mm 5,6 UV-I 838 W/m 12,2 C 25,9 C 12,9 km/h (3 Bft) 97,73 %
08.07.2016 14:54 26,5 C 44 % 1015,4 hPa 0,0 l/m 4,3 km/h (1 Bft) W 269 2 min 0,000 mm 5,5 UV-I 831 W/m 13,2 C 26,5 C 9,7 km/h (2 Bft) 95,12 %
08.07.2016 14:56 26,5 C 44 % 1015,5 hPa 0,0 l/m 8,5 km/h (2 Bft) SW 225 2 min 0,000 mm 5,5 UV-I 836 W/m 13,2 C 26,1 C 14,5 km/h (3 Bft) 98,21 %
08.07.2016 14:58 26,5 C 44 % 1015,4 hPa 0,0 l/m 7,2 km/h (2 Bft) W 260 2 min 0,000 mm 5,4 UV-I 834 W/m 13,2 C 26,3 C 11,3 km/h (2 Bft) 97,56 %
08.07.2016 15:00 26,6 C 42 % 1015,4 hPa 0,0 l/m 7,1 km/h (2 Bft) W-NW 302 2 min 0,584 mm 5,4 UV-I 813 W/m 12,6 C 26,5 C 12,9 km/h (3 Bft) 96,00 %
08.07.2016 15:02 26,4 C 41 % 1015,5 hPa 0,0 l/m 5,3 km/h (1 Bft) W-SW 252 2 min 0,000 mm 5,2 UV-I 807 W/m 12,1 C 26,4 C 8,0 km/h (2 Bft) 100,00 %
08.07.2016 15:04 26,7 C 44 % 1015,5 hPa 0,0 l/m 7,2 km/h (2 Bft) W 261 2 min 0,000 mm 5,0 UV-I 784 W/m 13,4 C 26,5 C 14,5 km/h (3 Bft) 97,87 %
08.07.2016 15:06 26,7 C 42 % 1015,4 hPa 0,0 l/m 4,7 km/h (1 Bft) SW 231 2 min 0,000 mm 4,7 UV-I 769 W/m 12,7 C 26,7 C 9,7 km/h (2 Bft) 94,74 %
08.07.2016 15:08 26,8 C 43 % 1015,4 hPa 0,0 l/m 3,3 km/h (1 Bft) W 265 2 min 0,000 mm 5,2 UV-I 818 W/m 13,2 C 26,8 C 11,3 km/h (2 Bft) 100,00 %
08.07.2016 15:10 26,8 C 40 % 1015,4 hPa 0,0 l/m 8,3 km/h (2 Bft) W-SW 240 2 min 0,000 mm 4,9 UV-I 775 W/m 12,1 C 26,4 C 16,1 km/h (3 Bft) 100,00 %
08.07.2016 15:12 26,7 C 41 % 1015,4 hPa 0,0 l/m 9,8 km/h (2 Bft) W-NW 282 2 min 0,000 mm 4,9 UV-I 762 W/m 12,3 C 26,1 C 14,5 km/h (3 Bft) 100,00 %
08.07.2016 15:14 26,6 C 41 % 1015,3 hPa 0,0 l/m 4,9 km/h (1 Bft) W-NW 296 2 min 0,000 mm 4,9 UV-I 779 W/m 12,2 C 26,6 C 11,3 km/h (2 Bft) 100,00 %
08.07.2016 15:16 26,4 C 41 % 1015,2 hPa 0,0 l/m 3,5 km/h (1 Bft) NW 325 2 min 0,000 mm 5,1 UV-I 828 W/m 12,1 C 26,4 C 6,4 km/h (2 Bft) 97,87 %
08.07.2016 15:18 26,6 C 42 % 1015,2 hPa 0,0 l/m 6,1 km/h (2 Bft) W-SW 255 2 min 0,000 mm 5,1 UV-I 847 W/m 12,6 C 26,6 C 11,3 km/h (2 Bft) 100,00 %
08.07.2016 15:20 26,7 C 40 % 1015,1 hPa 0,0 l/m 3,8 km/h (1 Bft) S 176 2 min 0,000 mm 4,9 UV-I 797 W/m 12,0 C 26,7 C 8,0 km/h (2 Bft) 100,00 %
08.07.2016 15:22 26,7 C 44 % 1015,1 hPa 0,0 l/m 2,7 km/h (1 Bft) SW 234 2 min 0,000 mm 4,6 UV-I 810 W/m 13,4 C 26,7 C 6,4 km/h (2 Bft) 100,00 %
08.07.2016 15:24 26,7 C 43 % 1015,1 hPa 0,0 l/m 5,4 km/h (1 Bft) W 269 2 min 0,000 mm 4,1 UV-I 671 W/m 13,1 C 26,7 C 12,9 km/h (3 Bft) 100,00 %
08.07.2016 15:26 26,7 C 41 % 1015,1 hPa 0,0 l/m 4,7 km/h (1 Bft) W-NW 303 2 min 0,000 mm 3,7 UV-I 486 W/m 12,3 C 26,7 C 11,3 km/h (2 Bft) 100,00 %
08.07.2016 15:28 26,6 C 42 % 1015,0 hPa 0,0 l/m 2,6 km/h (1 Bft) W-NW 303 2 min 0,000 mm 4,2 UV-I 651 W/m 12,6 C 26,6 C 4,8 km/h (1 Bft) 98,00 %
08.07.2016 15:30 26,7 C 44 % 1015,0 hPa 0,0 l/m 5,5 km/h (1 Bft) W-SW 245 2 min 0,000 mm 4,5 UV-I 751 W/m 13,4 C 26,7 C 11,3 km/h (2 Bft) 98,00 %
08.07.2016 15:32 26,7 C 43 % 1015,0 hPa 0,0 l/m 8,0 km/h (2 Bft) W-SW 247 2 min 0,000 mm 4,2 UV-I 669 W/m 13,1 C 26,4 C 12,9 km/h (3 Bft) 100,00 %
08.07.2016 15:34 26,6 C 42 % 1015,0 hPa 0,0 l/m 4,6 km/h (1 Bft) W-SW 248 2 min 0,000 mm 4,0 UV-I 614 W/m 12,6 C 26,6 C 14,5 km/h (3 Bft) 98,11 %
08.07.2016 15:36 26,5 C 43 % 1014,9 hPa 0,0 l/m 3,8 km/h (1 Bft) S-SW 209 2 min 0,000 mm 3,9 UV-I 614 W/m 12,9 C 26,5 C 12,9 km/h (3 Bft) 100,00 %
08.07.2016 15:38 26,4 C 44 % 1014,9 hPa 0,0 l/m 7,0 km/h (2 Bft) S-SO 161 2 min 0,000 mm 4,0 UV-I 663 W/m 13,1 C 26,3 C 12,9 km/h (3 Bft) 100,00 %
08.07.2016 15:40 26,4 C 42 % 1014,9 hPa 0,0 l/m 3,1 km/h (1 Bft) SW 217 2 min 0,000 mm 3,8 UV-I 608 W/m 12,4 C 26,4 C 6,4 km/h (2 Bft) 100,00 %
08.07.2016 15:42 26,4 C 44 % 1014,9 hPa 0,0 l/m 4,1 km/h (1 Bft) W-SW 242 2 min 0,000 mm 4,0 UV-I 661 W/m 13,1 C 26,4 C 4,8 km/h (1 Bft) 100,00 %
08.07.2016 15:44 26,7 C 45 % 1014,8 hPa 0,0 l/m 1,9 km/h (1 Bft) NW 319 2 min 0,000 mm 4,0 UV-I 679 W/m 13,8 C 26,7 C 6,4 km/h (2 Bft) 100,00 %
08.07.2016 15:46 26,7 C 44 % 1014,8 hPa 0,0 l/m 2,6 km/h (1 Bft) W 273 2 min 0,000 mm 3,9 UV-I 651 W/m 13,4 C 26,7 C 4,8 km/h (1 Bft) 100,00 %
08.07.2016 15:48 26,8 C 46 % 1014,8 hPa 0,0 l/m 2,9 km/h (1 Bft) NW 309 2 min 0,000 mm 4,0 UV-I 661 W/m 14,2 C 26,8 C 4,8 km/h (1 Bft) 100,00 %
08.07.2016 15:50 26,9 C 45 % 1014,8 hPa 0,0 l/m 1,5 km/h (1 Bft) N 5 2 min 0,000 mm 4,0 UV-I 696 W/m 13,9 C 26,9 C 4,8 km/h (1 Bft) 100,00 %
08.07.2016 15:52 27,1 C 44 % 1014,8 hPa 0,0 l/m 2,4 km/h (1 Bft) S-SW 213 2 min 0,000 mm 4,0 UV-I 671 W/m 13,8 C 27,1 C 4,8 km/h (1 Bft) 100,00 %
08.07.2016 15:54 27,3 C 45 % 1014,8 hPa 0,0 l/m 2,9 km/h (1 Bft) W-NW 292 2 min 0,000 mm 4,0 UV-I 676 W/m 14,3 C 27,3 C 12,9 km/h (3 Bft) 100,00 %
08.07.2016 15:56 27,2 C 43 % 1014,7 hPa 0,0 l/m 5,2 km/h (1 Bft) W-NW 300 2 min 0,000 mm 3,5 UV-I 761 W/m 13,5 C 27,2 C 11,3 km/h (2 Bft) 100,00 %
08.07.2016 15:58 27,2 C 42 % 1014,7 hPa 0,0 l/m 5,6 km/h (1 Bft) W 266 2 min 0,000 mm 4,0 UV-I 764 W/m 13,2 C 27,2 C 11,3 km/h (2 Bft) 100,00 %
08.07.2016 16:00 27,1 C 40 % 1014,8 hPa 0,0 l/m 5,7 km/h (1 Bft) SW 215 2 min 0,508 mm 3,9 UV-I 717 W/m 12,3 C 27,1 C 12,9 km/h (3 Bft) 97,22 %
08.07.2016 16:02 27,0 C 44 % 1014,7 hPa 0,0 l/m 0,9 km/h (0 Bft) S-SW 209 2 min 0,000 mm 4,0 UV-I 747 W/m 13,7 C 27,0 C 3,2 km/h (1 Bft) 98,00 %
08.07.2016 16:04 27,1 C 42 % 1014,7 hPa 0,0 l/m 4,2 km/h (1 Bft) W-SW 250 2 min 0,000 mm 3,7 UV-I 687 W/m 13,1 C 27,1 C 11,3 km/h (2 Bft) 100,00 %
08.07.2016 16:06 27,1 C 42 % 1014,7 hPa 0,0 l/m 1,4 km/h (1 Bft) W 273 2 min 0,000 mm 3,6 UV-I 701 W/m 13,1 C 27,1 C 3,2 km/h (1 Bft) 100,00 %
08.07.2016 16:08 27,2 C 48 % 1014,7 hPa 0,0 l/m 4,7 km/h (1 Bft) S-SW 213 2 min 0,000 mm 3,8 UV-I 706 W/m 15,2 C 27,2 C 9,7 km/h (2 Bft) 100,00 %
08.07.2016 16:10 27,2 C 44 % 1014,7 hPa 0,0 l/m 5,9 km/h (2 Bft) W 262 2 min 0,000 mm 3,7 UV-I 705 W/m 13,9 C 27,2 C 11,3 km/h (2 Bft) 100,00 %
08.07.2016 16:13 27,3 C 42 % 1014,6 hPa 0,0 l/m 8,5 km/h (2 Bft) W-SW 241 3 min 0,000 mm 3,5 UV-I 669 W/m 13,2 C 26,9 C 16,1 km/h (3 Bft) 98,78 %
08.07.2016 16:14 27,3 C 40 % 1014,6 hPa 0,0 l/m 4,6 km/h (1 Bft) W-SW 241 1 min 0,000 mm 3,2 UV-I 556 W/m 12,5 C 27,3 C 6,4 km/h (2 Bft) 100,00 %
08.07.2016 16:16 27,2 C 41 % 1014,6 hPa 0,0 l/m 7,1 km/h (2 Bft) W-SW 258 2 min 0,000 mm 2,7 UV-I 515 W/m 12,8 C 27,1 C 12,9 km/h (3 Bft) 97,87 %
08.07.2016 16:18 27,2 C 41 % 1014,6 hPa 0,0 l/m 7,9 km/h (2 Bft) W 273 2 min 0,000 mm 3,3 UV-I 623 W/m 12,8 C 26,9 C 14,5 km/h (3 Bft) 97,87 %
08.07.2016 16:20 27,2 C 40 % 1014,6 hPa 0,0 l/m 5,1 km/h (1 Bft) W-NW 300 2 min 0,000 mm 3,3 UV-I 640 W/m 12,4 C 27,2 C 11,3 km/h (2 Bft) 100,00 %
08.07.2016 16:22 27,3 C 44 % 1014,7 hPa 0,0 l/m 9,9 km/h (2 Bft) W-SW 243 2 min 0,000 mm 3,2 UV-I 630 W/m 14,0 C 26,7 C 14,5 km/h (3 Bft) 97,73 %
08.07.2016 16:24 27,4 C 42 % 1014,6 hPa 0,0 l/m 7,1 km/h (2 Bft) W 279 2 min 0,000 mm 3,4 UV-I 667 W/m 13,3 C 27,3 C 11,3 km/h (2 Bft) 100,00 %
08.07.2016 16:26 27,4 C 40 % 1014,7 hPa 0,0 l/m 6,0 km/h (2 Bft) W 259 2 min 0,000 mm 3,1 UV-I 612 W/m 12,6 C 27,4 C 9,7 km/h (2 Bft) 96,00 %
08.07.2016 16:28 27,3 C 41 % 1014,7 hPa 0,0 l/m 5,9 km/h (2 Bft) NW 308 2 min 0,000 mm 3,2 UV-I 652 W/m 12,9 C 27,3 C 11,3 km/h (2 Bft) 97,87 %
08.07.2016 16:30 27,3 C 40 % 1014,6 hPa 0,0 l/m 5,8 km/h (2 Bft) W-NW 286 2 min 0,000 mm 3,2 UV-I 638 W/m 12,5 C 27,3 C 11,3 km/h (2 Bft) 97,73 %
08.07.2016 16:32 27,2 C 48 % 1014,6 hPa 0,0 l/m 2,4 km/h (1 Bft) N-NO 17 2 min 0,000 mm 3,0 UV-I 594 W/m 15,2 C 27,2 C 3,2 km/h (1 Bft) 97,73 %
08.07.2016 16:34 27,2 C 44 % 1014,5 hPa 0,0 l/m 2,4 km/h (1 Bft) W-NW 290 2 min 0,000 mm 2,7 UV-I 508 W/m 13,9 C 27,2 C 4,8 km/h (1 Bft) 97,87 %
08.07.2016 16:36 27,1 C 42 % 1014,5 hPa 0,0 l/m 4,2 km/h (1 Bft) W-NW 286 2 min 0,000 mm 2,5 UV-I 469 W/m 13,1 C 27,1 C 11,3 km/h (2 Bft) 94,00 %
08.07.2016 16:38 27,1 C 44 % 1014,5 hPa 0,0 l/m 3,3 km/h (1 Bft) W 269 2 min 0,000 mm 2,6 UV-I 504 W/m 13,8 C 27,1 C 6,4 km/h (2 Bft) 97,62 %
08.07.2016 16:40 27,0 C 45 % 1014,5 hPa 0,0 l/m 3,8 km/h (1 Bft) W-NW 290 2 min 0,000 mm 2,6 UV-I 542 W/m 14,0 C 27,0 C 6,4 km/h (2 Bft) 96,30 %
08.07.2016 16:42 27,0 C 43 % 1014,5 hPa 0,0 l/m 6,8 km/h (2 Bft) W-NW 286 2 min 0,000 mm 2,6 UV-I 523 W/m 13,3 C 26,9 C 12,9 km/h (3 Bft) 94,00 %
08.07.2016 16:44 26,9 C 42 % 1014,4 hPa 0,0 l/m 6,9 km/h (2 Bft) W-SW 247 2 min 0,000 mm 2,6 UV-I 500 W/m 12,9 C 26,8 C 12,9 km/h (3 Bft) 97,37 %
08.07.2016 16:46 26,9 C 44 % 1014,4 hPa 0,0 l/m 7,1 km/h (2 Bft) W-SW 252 2 min 0,000 mm 2,8 UV-I 603 W/m 13,6 C 26,8 C 12,9 km/h (3 Bft) 98,11 %
08.07.2016 16:48 27,1 C 42 % 1014,4 hPa 0,0 l/m 6,6 km/h (2 Bft) W-SW 256 2 min 0,000 mm 2,8 UV-I 612 W/m 13,1 C 27,1 C 9,7 km/h (2 Bft) 97,87 %
08.07.2016 16:50 27,2 C 43 % 1014,4 hPa 0,0 l/m 3,1 km/h (1 Bft) SW 217 2 min 0,000 mm 2,7 UV-I 613 W/m 13,5 C 27,2 C 6,4 km/h (2 Bft) 97,87 %
08.07.2016 16:52 27,2 C 42 % 1014,4 hPa 0,0 l/m 2,6 km/h (1 Bft) S-SW 207 2 min 0,000 mm 2,1 UV-I 546 W/m 13,2 C 27,2 C 6,4 km/h (2 Bft) 97,37 %
08.07.2016 16:54 27,1 C 44 % 1014,4 hPa 0,0 l/m 3,6 km/h (1 Bft) S 191 2 min 0,000 mm 2,1 UV-I 472 W/m 13,8 C 27,1 C 8,0 km/h (2 Bft) 98,11 %
08.07.2016 16:56 27,2 C 45 % 1014,4 hPa 0,0 l/m 2,8 km/h (1 Bft) S-SW 202 2 min 0,000 mm 2,1 UV-I 442 W/m 14,2 C 27,2 C 8,0 km/h (2 Bft) 95,74 %
08.07.2016 16:58 27,3 C 44 % 1014,4 hPa 0,0 l/m 2,3 km/h (1 Bft) W-SW 252 2 min 0,000 mm 2,2 UV-I 455 W/m 14,0 C 27,3 C 6,4 km/h (2 Bft) 100,00 %
08.07.2016 17:00 27,4 C 43 % 1014,4 hPa 0,0 l/m 6,5 km/h (2 Bft) W-SW 242 2 min 0,000 mm 2,3 UV-I 506 W/m 13,7 C 27,4 C 12,9 km/h (3 Bft) 100,00 %
08.07.2016 17:03 27,4 C 44 % 1014,4 hPa 0,0 l/m 7,1 km/h (2 Bft) W 281 3 min 0,432 mm 2,5 UV-I 598 W/m 14,0 C 27,3 C 12,9 km/h (3 Bft) 98,65 %
08.07.2016 17:04 27,4 C 45 % 1014,4 hPa 0,0 l/m 3,5 km/h (1 Bft) W-NW 283 1 min 0,000 mm 2,6 UV-I 659 W/m 14,4 C 27,4 C 6,4 km/h (2 Bft) 100,00 %
08.07.2016 17:06 27,5 C 43 % 1014,4 hPa 0,0 l/m 2,7 km/h (1 Bft) W-NW 282 2 min 0,000 mm 2,2 UV-I 607 W/m 13,8 C 27,5 C 4,8 km/h (1 Bft) 100,00 %
08.07.2016 17:08 27,6 C 44 % 1014,4 hPa 0,0 l/m 2,4 km/h (1 Bft) W-SW 255 2 min 0,000 mm 2,4 UV-I 624 W/m 14,2 C 27,6 C 4,8 km/h (1 Bft) 100,00 %
08.07.2016 17:10 27,5 C 44 % 1014,4 hPa 0,0 l/m 3,0 km/h (1 Bft) SW 219 2 min 0,000 mm 2,3 UV-I 563 W/m 14,1 C 27,5 C 4,8 km/h (1 Bft) 95,74 %
08.07.2016 17:12 27,6 C 45 % 1014,4 hPa 0,0 l/m 2,0 km/h (1 Bft) N-NW 343 2 min 0,000 mm 2,2 UV-I 535 W/m 14,6 C 27,6 C 4,8 km/h (1 Bft) 100,00 %
08.07.2016 17:14 27,7 C 47 % 1014,4 hPa 0,0 l/m 4,4 km/h (1 Bft) W 273 2 min 0,000 mm 2,5 UV-I 651 W/m 15,3 C 27,7 C 11,3 km/h (2 Bft) 100,00 %
08.07.2016 17:16 27,7 C 44 % 1014,3 hPa 0,0 l/m 5,0 km/h (1 Bft) W-SW 254 2 min 0,000 mm 2,4 UV-I 673 W/m 14,3 C 27,7 C 11,3 km/h (2 Bft) 100,00 %
08.07.2016 17:18 27,8 C 41 % 1014,4 hPa 0,0 l/m 9,9 km/h (2 Bft) W 275 2 min 0,000 mm 2,3 UV-I 647 W/m 13,3 C 27,3 C 14,5 km/h (3 Bft) 100,00 %
08.07.2016 17:20 27,9 C 41 % 1014,4 hPa 0,0 l/m 9,4 km/h (2 Bft) W-SW 239 2 min 0,000 mm 2,0 UV-I 541 W/m 13,4 C 27,4 C 14,5 km/h (3 Bft) 100,00 %
08.07.2016 17:22 28,0 C 41 % 1014,4 hPa 0,0 l/m 4,5 km/h (1 Bft) NW 319 2 min 0,000 mm 1,9 UV-I 483 W/m 13,5 C 28,0 C 9,7 km/h (2 Bft) 98,21 %
08.07.2016 17:24 28,1 C 46 % 1014,4 hPa 0,0 l/m 1,2 km/h (1 Bft) N-NW 327 2 min 0,000 mm 2,1 UV-I 650 W/m 15,4 C 28,1 C 3,2 km/h (1 Bft) 100,00 %
08.07.2016 17:26 28,0 C 45 % 1014,4 hPa 0,0 l/m 2,5 km/h (1 Bft) S 180 2 min 0,000 mm 1,8 UV-I 505 W/m 14,9 C 28,0 C 6,4 km/h (2 Bft) 100,00 %
08.07.2016 17:28 27,7 C 40 % 1014,4 hPa 0,0 l/m 4,2 km/h (1 Bft) S-SO 159 2 min 0,000 mm 1,6 UV-I 312 W/m 12,9 C 27,7 C 8,0 km/h (2 Bft) 100,00 %
08.07.2016 17:30 27,5 C 41 % 1014,4 hPa 0,0 l/m 8,9 km/h (2 Bft) W-SW 250 0 min 0,000 mm 1,4 UV-I 245 W/m 13,1 C 27,1 C 16,1 km/h (3 Bft) 100,00 %
08.07.2016 17:32 27,3 C 43 % 1014,4 hPa 0,0 l/m 2,9 km/h (1 Bft) W-SW 250 0 min 0,000 mm 1,3 UV-I 223 W/m 13,6 C 27,3 C 8,0 km/h (2 Bft) 100,00 %
08.07.2016 17:34 27,3 C 44 % 1014,4 hPa 0,0 l/m 1,4 km/h (1 Bft) W-NW 286 0 min 0,000 mm 1,2 UV-I 223 W/m 14,0 C 27,3 C 9,7 km/h (2 Bft) 98,00 %
08.07.2016 17:36 27,2 C 45 % 1014,4 hPa 0,0 l/m 3,4 km/h (1 Bft) N 11 0 min 0,000 mm 1,2 UV-I 230 W/m 14,2 C 27,2 C 8,0 km/h (2 Bft) 100,00 %
08.07.2016 17:38 26,9 C 44 % 1014,5 hPa 0,0 l/m 3,9 km/h (1 Bft) W 263 0 min 0,000 mm 1,2 UV-I 238 W/m 13,6 C 26,9 C 11,3 km/h (2 Bft) 100,00 %
08.07.2016 17:40 26,9 C 48 % 1014,5 hPa 0,0 l/m 2,9 km/h (1 Bft) N-NW 348 0 min 0,000 mm 1,2 UV-I 275 W/m 14,9 C 26,9 C 6,4 km/h (2 Bft) 100,00 %
08.07.2016 17:42 26,7 C 47 % 1014,4 hPa 0,0 l/m 1,7 km/h (1 Bft) N-NW 331 0 min 0,000 mm 1,2 UV-I 269 W/m 14,4 C 26,7 C 4,8 km/h (1 Bft) 100,00 %
08.07.2016 17:44 26,5 C 51 % 1014,4 hPa 0,0 l/m 1,5 km/h (1 Bft) N 5 2 min 0,000 mm 1,2 UV-I 304 W/m 15,5 C 26,5 C 4,8 km/h (1 Bft) 100,00 %
08.07.2016 17:46 26,4 C 52 % 1014,4 hPa 0,0 l/m 3,1 km/h (1 Bft) N-NO 18 2 min 0,000 mm 1,3 UV-I 311 W/m 15,7 C 26,4 C 6,4 km/h (2 Bft) 100,00 %
08.07.2016 17:48 26,6 C 52 % 1014,4 hPa 0,0 l/m 1,3 km/h (1 Bft) N 5 2 min 0,000 mm 1,3 UV-I 450 W/m 15,9 C 26,6 C 3,2 km/h (1 Bft) 100,00 %
08.07.2016 17:50 26,7 C 49 % 1014,4 hPa 0,0 l/m 5,6 km/h (1 Bft) N 10 2 min 0,000 mm 1,4 UV-I 552 W/m 15,1 C 26,7 C 9,7 km/h (2 Bft) 100,00 %
08.07.2016 17:52 26,8 C 48 % 1014,4 hPa 0,0 l/m 2,1 km/h (1 Bft) N-NW 344 2 min 0,000 mm 1,2 UV-I 440 W/m 14,9 C 26,8 C 3,2 km/h (1 Bft) 100,00 %
08.07.2016 17:54 26,8 C 48 % 1014,4 hPa 0,0 l/m 1,9 km/h (1 Bft) NW 324 2 min 0,000 mm 1,3 UV-I 351 W/m 14,9 C 26,8 C 4,8 km/h (1 Bft) 100,00 %
08.07.2016 17:56 26,9 C 47 % 1014,3 hPa 0,0 l/m 4,2 km/h (1 Bft) N-NO 27 2 min 0,000 mm 1,3 UV-I 581 W/m 14,6 C 26,9 C 12,9 km/h (3 Bft) 97,92 %
08.07.2016 17:58 27,1 C 44 % 1014,4 hPa 0,0 l/m 3,1 km/h (1 Bft) N-NW 333 2 min 0,000 mm 1,2 UV-I 477 W/m 13,8 C 27,1 C 6,4 km/h (2 Bft) 100,00 %
08.07.2016 18:00 26,9 C 46 % 1014,3 hPa 0,0 l/m 2,5 km/h (1 Bft) N-NW 344 2 min 0,000 mm 1,0 UV-I 259 W/m 14,3 C 26,9 C 4,8 km/h (1 Bft) 100,00 %
08.07.2016 18:02 26,7 C 48 % 1014,3 hPa 0,0 l/m 2,3 km/h (1 Bft) N-NW 333 0 min 0,330 mm 0,9 UV-I 172 W/m 14,8 C 26,7 C 6,4 km/h (2 Bft) 100,00 %
08.07.2016 18:04 26,5 C 48 % 1014,3 hPa 0,0 l/m 1,7 km/h (1 Bft) W-NW 290 0 min 0,000 mm 0,9 UV-I 158 W/m 14,6 C 26,5 C 4,8 km/h (1 Bft) 97,73 %
08.07.2016 18:06 26,2 C 49 % 1014,3 hPa 0,0 l/m 1,3 km/h (1 Bft) W-NW 290 0 min 0,000 mm 0,9 UV-I 160 W/m 14,6 C 26,2 C 3,2 km/h (1 Bft) 100,00 %
08.07.2016 18:08 26,1 C 52 % 1014,4 hPa 0,0 l/m 1,6 km/h (1 Bft) N-NW 331 0 min 0,000 mm 0,8 UV-I 164 W/m 15,5 C 26,1 C 4,8 km/h (1 Bft) 100,00 %
08.07.2016 18:10 26,0 C 51 % 1014,3 hPa 0,0 l/m 3,4 km/h (1 Bft) N-NW 338 0 min 0,000 mm 0,8 UV-I 170 W/m 15,1 C 26,0 C 8,0 km/h (2 Bft) 100,00 %
08.07.2016 18:12 25,8 C 51 % 1014,3 hPa 0,0 l/m 1,4 km/h (1 Bft) N 355 0 min 0,000 mm 0,8 UV-I 155 W/m 14,9 C 25,8 C 3,2 km/h (1 Bft) 97,73 %
08.07.2016 18:16 25,3 C 56 % 1014,3 hPa 0,0 l/m 0,9 km/h (0 Bft) N 360 0 min 0,000 mm 0,8 UV-I 171 W/m 15,9 C 25,3 C 1,6 km/h (1 Bft) 93,75 %
08.07.2016 18:18 25,2 C 55 % 1014,2 hPa 0,0 l/m 1,6 km/h (1 Bft) N 9 0 min 0,000 mm 0,9 UV-I 171 W/m 15,5 C 25,2 C 6,4 km/h (2 Bft) 94,34 %
08.07.2016 18:20 25,3 C 55 % 1014,2 hPa 0,0 l/m 0,3 km/h (0 Bft) N 9 0 min 0,000 mm 0,8 UV-I 190 W/m 15,6 C 25,3 C 3,2 km/h (1 Bft) 95,74 %
08.07.2016 18:22 25,4 C 52 % 1014,2 hPa 0,0 l/m 2,2 km/h (1 Bft) N 11 0 min 0,000 mm 0,8 UV-I 165 W/m 14,8 C 25,4 C 6,4 km/h (2 Bft) 97,37 %
08.07.2016 18:24 25,4 C 55 % 1014,2 hPa 0,0 l/m 0,6 km/h (0 Bft) N 11 0 min 0,000 mm 0,8 UV-I 184 W/m 15,7 C 25,4 C 1,6 km/h (1 Bft) 98,00 %
08.07.2016 18:26 25,6 C 51 % 1014,2 hPa 0,0 l/m 0,1 km/h (0 Bft) N 11 2 min 0,000 mm 0,7 UV-I 222 W/m 14,7 C 25,6 C 1,6 km/h (1 Bft) 96,00 %
08.07.2016 18:28 25,7 C 55 % 1014,2 hPa 0,0 l/m 0,0 km/h (0 Bft) N 11 0 min 0,000 mm 0,7 UV-I 150 W/m 16,0 C 25,7 C 1,6 km/h (1 Bft) 96,00 %
08.07.2016 18:30 25,7 C 52 % 1014,2 hPa 0,0 l/m 0,7 km/h (0 Bft) N 5 0 min 0,000 mm 0,6 UV-I 141 W/m 15,1 C 25,7 C 1,6 km/h (1 Bft) 95,74 %
08.07.2016 18:32 25,6 C 55 % 1014,2 hPa 0,0 l/m 1,2 km/h (1 Bft) N 5 0 min 0,000 mm 0,6 UV-I 142 W/m 15,9 C 25,6 C 3,2 km/h (1 Bft) 96,00 %
08.07.2016 18:34 25,7 C 53 % 1014,2 hPa 0,0 l/m 0,3 km/h (0 Bft) N 5 0 min 0,000 mm 0,6 UV-I 161 W/m 15,4 C 25,7 C 1,6 km/h (1 Bft) 97,37 %
08.07.2016 18:36 25,6 C 54 % 1014,2 hPa 0,0 l/m 2,4 km/h (1 Bft) N 5 0 min 0,000 mm 0,6 UV-I 153 W/m 15,6 C 25,6 C 4,8 km/h (1 Bft) 96,43 %
08.07.2016 18:38 25,6 C 55 % 1014,2 hPa 0,0 l/m 0,6 km/h (0 Bft) N 5 0 min 0,000 mm 0,5 UV-I 166 W/m 15,9 C 25,6 C 1,6 km/h (1 Bft) 97,56 %
08.07.2016 18:40 25,6 C 55 % 1014,2 hPa 0,0 l/m 1,8 km/h (1 Bft) N 5 0 min 0,000 mm 0,5 UV-I 163 W/m 15,9 C 25,6 C 3,2 km/h (1 Bft) 96,00 %
08.07.2016 18:43 25,6 C 55 % 1014,2 hPa 0,0 l/m 3,0 km/h (1 Bft) N 11 0 min 0,000 mm 0,5 UV-I 177 W/m 15,9 C 25,6 C 4,8 km/h (1 Bft) 97,30 %
08.07.2016 18:44 25,6 C 53 % 1014,2 hPa 0,0 l/m 3,3 km/h (1 Bft) N 11 0 min 0,000 mm 0,5 UV-I 179 W/m 15,3 C 25,6 C 4,8 km/h (1 Bft) 100,00 %
08.07.2016 18:46 25,7 C 52 % 1014,1 hPa 0,0 l/m 1,9 km/h (1 Bft) N-NO 15 0 min 0,000 mm 0,5 UV-I 169 W/m 15,1 C 25,7 C 4,8 km/h (1 Bft) 100,00 %
08.07.2016 18:48 25,7 C 55 % 1014,1 hPa 0,0 l/m 3,6 km/h (1 Bft) N-NO 21 0 min 0,000 mm 0,5 UV-I 156 W/m 16,0 C 25,7 C 6,4 km/h (2 Bft) 100,00 %
08.07.2016 18:50 25,6 C 52 % 1014,1 hPa 0,0 l/m 4,5 km/h (1 Bft) N-NO 23 0 min 0,000 mm 0,5 UV-I 148 W/m 15,0 C 25,6 C 6,4 km/h (2 Bft) 97,37 %
08.07.2016 18:52 25,6 C 54 % 1014,1 hPa 0,0 l/m 2,7 km/h (1 Bft) N-NO 23 0 min 0,000 mm 0,0 UV-I 139 W/m 15,6 C 25,6 C 4,8 km/h (1 Bft) 98,21 %
08.07.2016 18:54 25,7 C 51 % 1014,1 hPa 0,0 l/m 2,0 km/h (1 Bft) N-NO 23 0 min 0,000 mm 0,0 UV-I 126 W/m 14,8 C 25,7 C 3,2 km/h (1 Bft) 97,87 %
08.07.2016 18:56 25,7 C 54 % 1014,1 hPa 0,0 l/m 3,3 km/h (1 Bft) N-NO 23 0 min 0,000 mm 0,0 UV-I 115 W/m 15,7 C 25,7 C 4,8 km/h (1 Bft) 97,56 %
08.07.2016 18:58 25,7 C 52 % 1014,1 hPa 0,0 l/m 4,0 km/h (1 Bft) N-NO 25 0 min 0,000 mm 0,0 UV-I 106 W/m 15,1 C 25,7 C 4,8 km/h (1 Bft) 98,00 %
08.07.2016 19:00 25,7 C 55 % 1014,1 hPa 0,0 l/m 3,7 km/h (1 Bft) N-NO 25 0 min 0,000 mm 0,0 UV-I 104 W/m 16,0 C 25,7 C 4,8 km/h (1 Bft) 100,00 %
08.07.2016 19:02 25,6 C 53 % 1014,1 hPa 0,0 l/m 3,8 km/h (1 Bft) N-NO 30 0 min 0,127 mm 0,0 UV-I 104 W/m 15,3 C 25,6 C 4,8 km/h (1 Bft) 100,00 %
08.07.2016 19:04 25,5 C 54 % 1014,2 hPa 0,0 l/m 4,1 km/h (1 Bft) N-NO 32 0 min 0,000 mm 0,0 UV-I 104 W/m 15,5 C 25,5 C 4,8 km/h (1 Bft) 100,00 %
08.07.2016 19:06 25,4 C 55 % 1014,1 hPa 0,0 l/m 3,8 km/h (1 Bft) N-NO 32 0 min 0,000 mm 0,0 UV-I 104 W/m 15,7 C 25,4 C 4,8 km/h (1 Bft) 94,74 %
08.07.2016 19:08 25,4 C 55 % 1014,1 hPa 0,0 l/m 3,8 km/h (1 Bft) N-NO 32 0 min 0,000 mm 0,0 UV-I 101 W/m 15,7 C 25,4 C 4,8 km/h (1 Bft) 100,00 %
08.07.2016 19:10 25,3 C 55 % 1014,1 hPa 0,0 l/m 1,6 km/h (1 Bft) N-NO 32 0 min 0,000 mm 0,0 UV-I 97 W/m 15,6 C 25,3 C 3,2 km/h (1 Bft) 97,92 %
08.07.2016 19:12 25,3 C 55 % 1014,2 hPa 0,0 l/m 2,8 km/h (1 Bft) N-NO 32 0 min 0,000 mm 0,0 UV-I 95 W/m 15,6 C 25,3 C 4,8 km/h (1 Bft) 100,00 %
08.07.2016 19:14 25,3 C 56 % 1014,1 hPa 0,0 l/m 2,4 km/h (1 Bft) N-NO 32 0 min 0,000 mm 0,0 UV-I 89 W/m 15,9 C 25,3 C 3,2 km/h (1 Bft) 97,22 %
08.07.2016 19:16 25,3 C 56 % 1014,2 hPa 0,0 l/m 2,7 km/h (1 Bft) N-NO 32 0 min 0,000 mm 0,0 UV-I 84 W/m 15,9 C 25,3 C 4,8 km/h (1 Bft) 100,00 %
08.07.2016 19:18 25,3 C 56 % 1014,2 hPa 0,0 l/m 3,5 km/h (1 Bft) N-NO 32 0 min 0,000 mm 0,0 UV-I 79 W/m 15,9 C 25,3 C 4,8 km/h (1 Bft) 100,00 %
08.07.2016 19:20 25,2 C 55 % 1014,2 hPa 0,0 l/m 3,0 km/h (1 Bft) N-NO 32 0 min 0,000 mm 0,0 UV-I 80 W/m 15,5 C 25,2 C 3,2 km/h (1 Bft) 94,34 %
08.07.2016 19:22 25,2 C 56 % 1014,1 hPa 0,0 l/m 2,6 km/h (1 Bft) N-NO 32 0 min 0,000 mm 0,0 UV-I 102 W/m 15,8 C 25,2 C 4,8 km/h (1 Bft) 98,00 %
08.07.2016 19:24 25,2 C 57 % 1014,1 hPa 0,0 l/m 3,0 km/h (1 Bft) N-NO 32 0 min 0,000 mm 0,0 UV-I 111 W/m 16,1 C 25,2 C 4,8 km/h (1 Bft) 97,37 %
08.07.2016 19:26 25,2 C 56 % 1014,1 hPa 0,0 l/m 1,5 km/h (1 Bft) N-NO 32 0 min 0,000 mm 0,0 UV-I 106 W/m 15,8 C 25,2 C 3,2 km/h (1 Bft) 98,00 %
08.07.2016 19:28 25,3 C 58 % 1014,1 hPa 0,0 l/m 1,8 km/h (1 Bft) N-NO 32 0 min 0,000 mm 0,0 UV-I 105 W/m 16,4 C 25,3 C 3,2 km/h (1 Bft) 100,00 %
08.07.2016 19:30 25,4 C 56 % 1014,0 hPa 0,0 l/m 2,3 km/h (1 Bft) N-NO 32 0 min 0,000 mm 0,0 UV-I 102 W/m 16,0 C 25,4 C 3,2 km/h (1 Bft) 100,00 %
08.07.2016 19:32 25,4 C 54 % 1014,0 hPa 0,0 l/m 2,3 km/h (1 Bft) N-NO 32 0 min 0,000 mm 0,0 UV-I 95 W/m 15,4 C 25,4 C 4,8 km/h (1 Bft) 100,00 %
08.07.2016 19:34 25,4 C 55 % 1013,9 hPa 0,0 l/m 1,7 km/h (1 Bft) N-NO 32 0 min 0,000 mm 0,0 UV-I 84 W/m 15,7 C 25,4 C 3,2 km/h (1 Bft) 100,00 %
08.07.2016 19:36 25,3 C 58 % 1013,9 hPa 0,0 l/m 2,4 km/h (1 Bft) N-NO 32 0 min 0,000 mm 0,0 UV-I 68 W/m 16,4 C 25,3 C 3,2 km/h (1 Bft) 97,73 %
08.07.2016 19:38 25,2 C 59 % 1013,9 hPa 0,0 l/m 2,6 km/h (1 Bft) N-NO 32 0 min 0,000 mm 0,0 UV-I 62 W/m 16,6 C 25,2 C 4,8 km/h (1 Bft) 100,00 %
08.07.2016 19:40 25,1 C 56 % 1013,9 hPa 0,0 l/m 2,2 km/h (1 Bft) N-NO 32 0 min 0,000 mm 0,0 UV-I 60 W/m 15,7 C 25,1 C 3,2 km/h (1 Bft) 96,00 %
08.07.2016 19:42 25,1 C 56 % 1013,9 hPa 0,0 l/m 1,7 km/h (1 Bft) N-NO 32 0 min 0,000 mm 0,0 UV-I 61 W/m 15,7 C 25,1 C 3,2 km/h (1 Bft) 100,00 %
08.07.2016 19:44 25,1 C 56 % 1013,9 hPa 0,0 l/m 1,0 km/h (0 Bft) N-NO 32 0 min 0,000 mm 0,0 UV-I 80 W/m 15,7 C 25,1 C 3,2 km/h (1 Bft) 100,00 %
08.07.2016 19:46 25,1 C 57 % 1013,9 hPa 0,0 l/m 1,8 km/h (1 Bft) N-NO 32 0 min 0,000 mm 0,0 UV-I 74 W/m 16,0 C 25,1 C 3,2 km/h (1 Bft) 96,77 %
08.07.2016 19:50 25,1 C 57 % 1013,8 hPa 0,0 l/m 1,6 km/h (1 Bft) N-NO 22 0 min 0,000 mm 0,0 UV-I 71 W/m 16,0 C 25,1 C 3,2 km/h (1 Bft) 100,00 %
08.07.2016 19:56 24,7 C 57 % 1013,9 hPa 0,0 l/m 1,6 km/h (1 Bft) N-NO 32 0 min 0,000 mm 0,0 UV-I 59 W/m 15,6 C 24,7 C 1,6 km/h (1 Bft) 80,00 %
08.07.2016 19:58 24,6 C 61 % 1013,9 hPa 0,0 l/m 2,2 km/h (1 Bft) N-NO 32 0 min 0,000 mm 0,0 UV-I 60 W/m 16,6 C 24,6 C 3,2 km/h (1 Bft) 100,00 %
08.07.2016 20:00 24,4 C 61 % 1013,9 hPa 0,0 l/m 1,6 km/h (1 Bft) N-NO 32 0 min 0,000 mm 0,0 UV-I 57 W/m 16,4 C 24,4 C 3,2 km/h (1 Bft) 100,00 %
08.07.2016 20:02 24,3 C 60 % 1013,9 hPa 0,0 l/m 1,6 km/h (1 Bft) N-NO 32 0 min 0,076 mm 0,0 UV-I 48 W/m 16,0 C 24,3 C 3,2 km/h (1 Bft) 100,00 %
08.07.2016 20:04 24,2 C 61 % 1013,8 hPa 0,0 l/m 1,4 km/h (1 Bft) N-NO 32 0 min 0,000 mm 0,0 UV-I 44 W/m 16,2 C 24,2 C 1,6 km/h (1 Bft) 100,00 %
08.07.2016 20:06 24,0 C 61 % 1013,9 hPa 0,0 l/m 1,0 km/h (0 Bft) N-NO 32 0 min 0,000 mm 0,0 UV-I 42 W/m 16,0 C 24,0 C 1,6 km/h (1 Bft) 96,23 %
08.07.2016 20:08 23,9 C 62 % 1013,8 hPa 0,0 l/m 0,0 km/h (0 Bft) N-NO 32 0 min 0,000 mm 0,0 UV-I 42 W/m 16,2 C 23,9 C 1,6 km/h (1 Bft) 97,37 %
08.07.2016 20:10 23,8 C 63 % 1013,8 hPa 0,0 l/m 0,5 km/h (0 Bft) N-NO 32 0 min 0,000 mm 0,0 UV-I 44 W/m 16,3 C 23,8 C 1,6 km/h (1 Bft) 96,23 %
08.07.2016 20:12 23,7 C 63 % 1013,8 hPa 0,0 l/m 0,0 km/h (0 Bft) N-NO 32 0 min 0,000 mm 0,0 UV-I 47 W/m 16,2 C 23,7 C 1,6 km/h (1 Bft) 98,00 %
08.07.2016 20:14 23,6 C 63 % 1013,9 hPa 0,0 l/m 0,0 km/h (0 Bft) N-NO 32 0 min 0,000 mm 0,0 UV-I 47 W/m 16,1 C 23,6 C 0,0 km/h (0 Bft) 97,87 %
08.07.2016 20:16 23,5 C 64 % 1013,8 hPa 0,0 l/m 0,6 km/h (0 Bft) N-NO 32 0 min 0,000 mm 0,0 UV-I 47 W/m 16,3 C 23,5 C 1,6 km/h (1 Bft) 97,37 %
08.07.2016 20:18 23,4 C 64 % 1013,8 hPa 0,0 l/m 1,9 km/h (1 Bft) N-NO 32 0 min 0,000 mm 0,0 UV-I 45 W/m 16,2 C 23,4 C 3,2 km/h (1 Bft) 96,00 %
08.07.2016 20:20 23,3 C 65 % 1013,8 hPa 0,0 l/m 1,8 km/h (1 Bft) N-NO 32 0 min 0,000 mm 0,0 UV-I 41 W/m 16,3 C 23,3 C 3,2 km/h (1 Bft) 97,87 %
08.07.2016 20:23 23,2 C 64 % 1013,7 hPa 0,0 l/m 1,2 km/h (1 Bft) N-NO 32 0 min 0,000 mm 0,0 UV-I 37 W/m 16,0 C 23,2 C 3,2 km/h (1 Bft) 96,92 %
08.07.2016 20:24 23,2 C 63 % 1013,7 hPa 0,0 l/m 0,1 km/h (0 Bft) N-NO 32 0 min 0,000 mm 0,0 UV-I 35 W/m 15,8 C 23,2 C 1,6 km/h (1 Bft) 100,00 %
08.07.2016 20:26 23,2 C 62 % 1013,7 hPa 0,0 l/m 0,2 km/h (0 Bft) N-NO 32 0 min 0,000 mm 0,0 UV-I 32 W/m 15,5 C 23,2 C 1,6 km/h (1 Bft) 97,87 %
08.07.2016 20:29 23,2 C 64 % 1013,8 hPa 0,0 l/m 0,0 km/h (0 Bft) N-NO 32 0 min 0,000 mm 0,0 UV-I 28 W/m 16,0 C 23,2 C 0,0 km/h (0 Bft) 93,24 %
08.07.2016 20:30 23,2 C 64 % 1013,8 hPa 0,0 l/m 0,0 km/h (0 Bft) N-NO 32 0 min 0,000 mm 0,0 UV-I 25 W/m 16,0 C 23,2 C 0,0 km/h (0 Bft) 95,65 %
08.07.2016 20:34 22,9 C 66 % 1013,8 hPa 0,0 l/m 0,4 km/h (0 Bft) N-NO 32 0 min 0,000 mm 0,0 UV-I 22 W/m 16,2 C 22,9 C 1,6 km/h (1 Bft) 97,96 %
08.07.2016 20:36 22,9 C 65 % 1013,8 hPa 0,0 l/m 1,1 km/h (1 Bft) N-NO 32 0 min 0,000 mm 0,0 UV-I 19 W/m 16,0 C 22,9 C 1,6 km/h (1 Bft) 97,37 %
08.07.2016 20:39 22,9 C 66 % 1013,9 hPa 0,0 l/m 0,5 km/h (0 Bft) N-NO 32 0 min 0,000 mm 0,0 UV-I 16 W/m 16,2 C 22,9 C 1,6 km/h (1 Bft) 98,63 %
08.07.2016 20:40 22,8 C 66 % 1013,9 hPa 0,0 l/m 0,4 km/h (0 Bft) N-NO 32 0 min 0,000 mm 0,0 UV-I 14 W/m 16,1 C 22,8 C 1,6 km/h (1 Bft) 100,00 %
08.07.2016 20:46 22,3 C 67 % 1014,0 hPa 0,0 l/m 0,0 km/h (0 Bft) N-NO 32 0 min 0,000 mm 0,0 UV-I 12 W/m 15,9 C 22,3 C 0,0 km/h (0 Bft) 98,31 %
08.07.2016 20:48 22,3 C 68 % 1014,1 hPa 0,0 l/m 0,0 km/h (0 Bft) N-NO 32 0 min 0,000 mm 0,0 UV-I 11 W/m 16,1 C 22,3 C 0,0 km/h (0 Bft) 97,87 %
08.07.2016 20:50 22,2 C 69 % 1014,0 hPa 0,0 l/m 0,1 km/h (0 Bft) N-NO 32 2 min 0,000 mm 0,0 UV-I 11 W/m 16,2 C 22,2 C 1,6 km/h (1 Bft) 100,00 %
08.07.2016 20:53 22,0 C 70 % 1014,0 hPa 0,0 l/m 0,1 km/h (0 Bft) N-NO 32 0 min 0,000 mm 0,0 UV-I 10 W/m 16,3 C 22,0 C 1,6 km/h (1 Bft) 98,57 %
08.07.2016 20:54 21,9 C 70 % 1014,0 hPa 0,0 l/m 0,0 km/h (0 Bft) N-NO 32 0 min 0,000 mm 0,0 UV-I 9 W/m 16,2 C 21,9 C 0,0 km/h (0 Bft) 100,00 %
08.07.2016 20:56 21,8 C 70 % 1014,0 hPa 0,0 l/m 0,0 km/h (0 Bft) N-NO 32 0 min 0,000 mm 0,0 UV-I 8 W/m 16,1 C 21,8 C 1,6 km/h (1 Bft) 100,00 %
08.07.2016 20:58 21,6 C 70 % 1014,0 hPa 0,0 l/m 0,0 km/h (0 Bft) N-NO 32 0 min 0,000 mm 0,0 UV-I 7 W/m 15,9 C 21,6 C 0,0 km/h (0 Bft) 97,73 %
08.07.2016 21:00 21,5 C 70 % 1014,0 hPa 0,0 l/m 0,0 km/h (0 Bft) N-NO 32 0 min 0,000 mm 0,0 UV-I 5 W/m 15,8 C 21,5 C 0,0 km/h (0 Bft) 100,00 %
08.07.2016 21:03 21,4 C 72 % 1014,0 hPa 0,0 l/m 0,0 km/h (0 Bft) N-NO 32 0 min 0,025 mm 0,0 UV-I 5 W/m 16,1 C 21,4 C 0,0 km/h (0 Bft) 100,00 %
08.07.2016 21:04 21,4 C 72 % 1014,0 hPa 0,0 l/m 0,0 km/h (0 Bft) N-NO 32 0 min 0,001 mm 0,0 UV-I 5 W/m 16,1 C 21,4 C 0,0 km/h (0 Bft) 100,00 %
08.07.2016 21:06 21,3 C 73 % 1014,0 hPa 0,0 l/m 0,0 km/h (0 Bft) N-NO 32 0 min 0,000 mm 0,0 UV-I 5 W/m 16,3 C 21,3 C 0,0 km/h (0 Bft) 100,00 %
08.07.2016 21:08 21,3 C 72 % 1014,0 hPa 0,0 l/m 0,0 km/h (0 Bft) N-NO 32 0 min 0,000 mm 0,0 UV-I 5 W/m 16,0 C 21,3 C 0,0 km/h (0 Bft) 100,00 %
08.07.2016 21:10 21,3 C 72 % 1014,0 hPa 0,0 l/m 0,0 km/h (0 Bft) N-NO 32 0 min 0,000 mm 0,0 UV-I 5 W/m 16,0 C 21,3 C 0,0 km/h (0 Bft) 100,00 %
08.07.2016 21:13 21,4 C 72 % 1014,1 hPa 0,0 l/m 0,0 km/h (0 Bft) N-NO 32 0 min 0,000 mm 0,0 UV-I 4 W/m 16,1 C 21,4 C 0,0 km/h (0 Bft) 100,00 %
08.07.2016 21:14 21,4 C 73 % 1014,1 hPa 0,0 l/m 0,0 km/h (0 Bft) N-NO 32 0 min 0,000 mm 0,0 UV-I 0 W/m 16,4 C 21,4 C 0,0 km/h (0 Bft) 100,00 %
08.07.2016 21:15 21,4 C 73 % 1014,1 hPa 0,0 l/m 0,0 km/h (0 Bft) N 0 0 min 0,000 mm 0,0 UV-I 3 W/m 16,4 C 21,4 C 0,0 km/h (0 Bft) 97,37 %
08.07.2016 21:18 21,3 C 73 % 1014,2 hPa 0,0 l/m 0,1 km/h (0 Bft) N-NO 32 0 min 0,000 mm 0,0 UV-I 0 W/m 16,3 C 21,3 C 1,6 km/h (1 Bft) 97,87 %
08.07.2016 21:20 21,2 C 74 % 1014,3 hPa 0,0 l/m 0,0 km/h (0 Bft) N-NO 32 0 min 0,000 mm 0,0 UV-I 0 W/m 16,4 C 21,2 C 0,0 km/h (0 Bft) 100,00 %
08.07.2016 21:22 21,2 C 74 % 1014,2 hPa 0,0 l/m 0,3 km/h (0 Bft) N-NO 32 0 min 0,000 mm 0,0 UV-I 0 W/m 16,4 C 21,2 C 1,6 km/h (1 Bft) 100,00 %
08.07.2016 21:24 21,1 C 74 % 1014,3 hPa 0,0 l/m 0,5 km/h (0 Bft) N-NO 32 0 min 0,000 mm 0,0 UV-I 0 W/m 16,3 C 21,1 C 1,6 km/h (1 Bft) 100,00 %
08.07.2016 21:26 20,9 C 74 % 1014,3 hPa 0,0 l/m 1,3 km/h (1 Bft) N-NO 32 0 min 0,000 mm 0,0 UV-I 0 W/m 16,1 C 20,9 C 3,2 km/h (1 Bft) 98,15 %
08.07.2016 21:30 20,8 C 75 % 1014,4 hPa 0,0 l/m 0,0 km/h (0 Bft) N-NO 32 0 min 0,000 mm 0,0 UV-I 0 W/m 16,2 C 20,8 C 0,0 km/h (0 Bft) 100,00 %
08.07.2016 21:32 20,8 C 75 % 1014,4 hPa 0,0 l/m 0,5 km/h (0 Bft) N-NO 32 0 min 0,000 mm 0,0 UV-I 0 W/m 16,2 C 20,8 C 3,2 km/h (1 Bft) 100,00 %
08.07.2016 21:34 20,7 C 75 % 1014,4 hPa 0,0 l/m 2,3 km/h (1 Bft) N-NO 32 0 min 0,000 mm 0,0 UV-I 0 W/m 16,1 C 20,7 C 3,2 km/h (1 Bft) 100,00 %
08.07.2016 21:36 20,7 C 75 % 1014,4 hPa 0,0 l/m 2,8 km/h (1 Bft) N-NO 32 0 min 0,000 mm 0,0 UV-I 0 W/m 16,1 C 20,7 C 3,2 km/h (1 Bft) 100,00 %
08.07.2016 21:38 20,6 C 75 % 1014,4 hPa 0,0 l/m 1,5 km/h (1 Bft) SO 140 0 min 0,000 mm 0,0 UV-I 0 W/m 16,0 C 20,6 C 3,2 km/h (1 Bft) 100,00 %
08.07.2016 21:40 20,6 C 74 % 1014,4 hPa 0,0 l/m 1,6 km/h (1 Bft) SO 144 0 min 0,000 mm 0,0 UV-I 0 W/m 15,8 C 20,6 C 3,2 km/h (1 Bft) 100,00 %
08.07.2016 21:42 20,4 C 74 % 1014,4 hPa 0,0 l/m 1,0 km/h (0 Bft) SO 144 0 min 0,000 mm 0,0 UV-I 0 W/m 15,6 C 20,4 C 3,2 km/h (1 Bft) 100,00 %
08.07.2016 21:44 20,3 C 74 % 1014,5 hPa 0,0 l/m 1,8 km/h (1 Bft) SO 144 0 min 0,000 mm 0,0 UV-I 0 W/m 15,5 C 20,3 C 3,2 km/h (1 Bft) 98,00 %
08.07.2016 21:46 20,3 C 74 % 1014,5 hPa 0,0 l/m 1,2 km/h (1 Bft) SO 144 0 min 0,000 mm 0,0 UV-I 0 W/m 15,5 C 20,3 C 3,2 km/h (1 Bft) 95,74 %
08.07.2016 21:48 20,3 C 74 % 1014,5 hPa 0,0 l/m 1,9 km/h (1 Bft) SO 144 0 min 0,000 mm 0,0 UV-I 0 W/m 15,5 C 20,3 C 3,2 km/h (1 Bft) 98,11 %
08.07.2016 21:50 20,3 C 74 % 1014,5 hPa 0,0 l/m 2,6 km/h (1 Bft) SO 144 0 min 0,000 mm 0,0 UV-I 0 W/m 15,5 C 20,3 C 3,2 km/h (1 Bft) 97,87 %
08.07.2016 21:52 20,3 C 75 % 1014,5 hPa 0,0 l/m 0,9 km/h (0 Bft) SO 144 0 min 0,000 mm 0,0 UV-I 0 W/m 15,7 C 20,3 C 1,6 km/h (1 Bft) 100,00 %
08.07.2016 21:54 20,3 C 74 % 1014,5 hPa 0,0 l/m 1,0 km/h (0 Bft) SO 144 0 min 0,000 mm 0,0 UV-I 0 W/m 15,5 C 20,3 C 3,2 km/h (1 Bft) 97,37 %
08.07.2016 21:56 20,3 C 74 % 1014,6 hPa 0,0 l/m 1,2 km/h (1 Bft) SO 144 0 min 0,000 mm 0,0 UV-I 0 W/m 15,5 C 20,3 C 3,2 km/h (1 Bft) 100,00 %
08.07.2016 21:58 20,2 C 74 % 1014,5 hPa 0,0 l/m 1,2 km/h (1 Bft) SO 144 0 min 0,000 mm 0,0 UV-I 0 W/m 15,4 C 20,2 C 3,2 km/h (1 Bft) 100,00 %
08.07.2016 22:00 20,2 C 73 % 1014,5 hPa 0,0 l/m 2,2 km/h (1 Bft) SO 144 0 min 0,000 mm 0,0 UV-I 0 W/m 15,2 C 20,2 C 3,2 km/h (1 Bft) 100,00 %
08.07.2016 22:02 20,2 C 73 % 1014,5 hPa 0,0 l/m 2,7 km/h (1 Bft) SO 144 0 min 0,000 mm 0,0 UV-I 0 W/m 15,2 C 20,2 C 4,8 km/h (1 Bft) 100,00 %
08.07.2016 22:04 20,2 C 74 % 1014,5 hPa 0,0 l/m 1,8 km/h (1 Bft) SO 144 0 min 0,000 mm 0,0 UV-I 0 W/m 15,4 C 20,2 C 3,2 km/h (1 Bft) 100,00 %
08.07.2016 22:06 20,2 C 72 % 1014,5 hPa 0,0 l/m 2,1 km/h (1 Bft) SO 144 0 min 0,000 mm 0,0 UV-I 0 W/m 15,0 C 20,2 C 3,2 km/h (1 Bft) 100,00 %
08.07.2016 22:08 20,2 C 73 % 1014,5 hPa 0,0 l/m 1,7 km/h (1 Bft) SO 144 0 min 0,000 mm 0,0 UV-I 0 W/m 15,2 C 20,2 C 3,2 km/h (1 Bft) 98,53 %
08.07.2016 22:10 20,2 C 73 % 1014,5 hPa 0,0 l/m 2,0 km/h (1 Bft) SO 144 0 min 0,000 mm 0,0 UV-I 0 W/m 15,2 C 20,2 C 3,2 km/h (1 Bft) 97,56 %
08.07.2016 22:12 20,3 C 72 % 1014,5 hPa 0,0 l/m 2,9 km/h (1 Bft) SO 144 0 min 0,000 mm 0,0 UV-I 0 W/m 15,1 C 20,3 C 3,2 km/h (1 Bft) 96,30 %
08.07.2016 22:14 20,4 C 72 % 1014,5 hPa 0,0 l/m 3,1 km/h (1 Bft) SO 144 0 min 0,000 mm 0,0 UV-I 0 W/m 15,2 C 20,4 C 4,8 km/h (1 Bft) 97,56 %
08.07.2016 22:16 20,4 C 72 % 1014,5 hPa 0,0 l/m 4,0 km/h (1 Bft) SO 144 0 min 0,000 mm 0,0 UV-I 0 W/m 15,2 C 20,4 C 4,8 km/h (1 Bft) 97,87 %
08.07.2016 22:18 20,4 C 72 % 1014,5 hPa 0,0 l/m 4,1 km/h (1 Bft) SO 144 0 min 0,000 mm 0,0 UV-I 0 W/m 15,2 C 20,4 C 4,8 km/h (1 Bft) 97,87 %
08.07.2016 22:20 20,4 C 72 % 1014,6 hPa 0,0 l/m 3,1 km/h (1 Bft) SO 144 0 min 0,000 mm 0,0 UV-I 0 W/m 15,2 C 20,4 C 4,8 km/h (1 Bft) 96,00 %
08.07.2016 22:22 20,4 C 72 % 1014,6 hPa 0,0 l/m 3,7 km/h (1 Bft) SO 146 0 min 0,000 mm 0,0 UV-I 0 W/m 15,2 C 20,4 C 4,8 km/h (1 Bft) 93,62 %
08.07.2016 22:24 20,3 C 74 % 1014,6 hPa 0,0 l/m 5,1 km/h (1 Bft) S-SO 167 0 min 0,000 mm 0,0 UV-I 0 W/m 15,5 C 20,3 C 8,0 km/h (2 Bft) 95,12 %
08.07.2016 22:26 20,2 C 74 % 1014,6 hPa 0,0 l/m 4,8 km/h (1 Bft) S 173 0 min 0,000 mm 0,0 UV-I 0 W/m 15,4 C 20,2 C 6,4 km/h (2 Bft) 95,24 %
08.07.2016 22:28 20,2 C 74 % 1014,6 hPa 0,0 l/m 4,6 km/h (1 Bft) S 184 0 min 0,000 mm 0,0 UV-I 0 W/m 15,4 C 20,2 C 6,4 km/h (2 Bft) 98,11 %
08.07.2016 22:30 20,1 C 74 % 1014,6 hPa 0,0 l/m 4,5 km/h (1 Bft) S 180 0 min 0,000 mm 0,0 UV-I 0 W/m 15,3 C 20,1 C 6,4 km/h (2 Bft) 96,15 %
08.07.2016 22:32 20,1 C 74 % 1014,6 hPa 0,0 l/m 3,7 km/h (1 Bft) S 178 0 min 0,000 mm 0,0 UV-I 0 W/m 15,3 C 20,1 C 6,4 km/h (2 Bft) 97,44 %
08.07.2016 22:34 20,1 C 74 % 1014,6 hPa 0,0 l/m 3,7 km/h (1 Bft) S 179 0 min 0,000 mm 0,0 UV-I 0 W/m 15,3 C 20,1 C 4,8 km/h (1 Bft) 97,87 %
08.07.2016 22:36 20,0 C 74 % 1014,6 hPa 0,0 l/m 3,7 km/h (1 Bft) S 179 0 min 0,000 mm 0,0 UV-I 0 W/m 15,2 C 20,0 C 6,4 km/h (2 Bft) 96,00 %
08.07.2016 22:38 20,0 C 75 % 1014,6 hPa 0,0 l/m 4,0 km/h (1 Bft) S 179 0 min 0,000 mm 0,0 UV-I 0 W/m 15,4 C 20,0 C 4,8 km/h (1 Bft) 98,00 %
08.07.2016 22:40 19,9 C 75 % 1014,6 hPa 0,0 l/m 4,0 km/h (1 Bft) S 181 0 min 0,000 mm 0,0 UV-I 0 W/m 15,3 C 19,9 C 4,8 km/h (1 Bft) 96,00 %
08.07.2016 22:42 19,9 C 74 % 1014,6 hPa 0,0 l/m 4,2 km/h (1 Bft) S 188 0 min 0,000 mm 0,0 UV-I 0 W/m 15,1 C 19,9 C 6,4 km/h (2 Bft) 100,00 %
08.07.2016 22:44 19,9 C 74 % 1014,6 hPa 0,0 l/m 4,6 km/h (1 Bft) S 171 0 min 0,000 mm 0,0 UV-I 0 W/m 15,1 C 19,9 C 8,0 km/h (2 Bft) 96,23 %
08.07.2016 22:46 20,0 C 74 % 1014,6 hPa 0,0 l/m 4,8 km/h (1 Bft) SW 225 0 min 0,000 mm 0,0 UV-I 0 W/m 15,2 C 20,0 C 8,0 km/h (2 Bft) 97,56 %
08.07.2016 22:48 20,0 C 75 % 1014,6 hPa 0,0 l/m 3,7 km/h (1 Bft) S 178 0 min 0,000 mm 0,0 UV-I 0 W/m 15,4 C 20,0 C 6,4 km/h (2 Bft) 100,00 %
08.07.2016 22:50 20,1 C 74 % 1014,6 hPa 0,0 l/m 5,4 km/h (1 Bft) S 188 0 min 0,000 mm 0,0 UV-I 0 W/m 15,3 C 20,1 C 8,0 km/h (2 Bft) 100,00 %
08.07.2016 22:52 20,2 C 74 % 1014,6 hPa 0,0 l/m 4,2 km/h (1 Bft) S 188 0 min 0,000 mm 0,0 UV-I 0 W/m 15,4 C 20,2 C 6,4 km/h (2 Bft) 98,44 %
08.07.2016 22:54 20,2 C 75 % 1014,6 hPa 0,0 l/m 4,9 km/h (1 Bft) S-SW 195 0 min 0,000 mm 0,0 UV-I 0 W/m 15,6 C 20,2 C 8,0 km/h (2 Bft) 100,00 %
08.07.2016 22:56 20,2 C 75 % 1014,6 hPa 0,0 l/m 5,4 km/h (1 Bft) S-SW 193 0 min 0,000 mm 0,0 UV-I 0 W/m 15,6 C 20,2 C 9,7 km/h (2 Bft) 100,00 %
08.07.2016 22:58 20,2 C 75 % 1014,7 hPa 0,0 l/m 6,4 km/h (2 Bft) S-SW 196 0 min 0,000 mm 0,0 UV-I 0 W/m 15,6 C 20,2 C 9,7 km/h (2 Bft) 100,00 %
08.07.2016 23:00 20,3 C 75 % 1014,7 hPa 0,0 l/m 8,0 km/h (2 Bft) S-SW 203 0 min 0,000 mm 0,0 UV-I 0 W/m 15,7 C 19,7 C 12,9 km/h (3 Bft) 100,00 %
08.07.2016 23:02 20,3 C 74 % 1014,8 hPa 0,0 l/m 6,5 km/h (2 Bft) SW 215 0 min 0,025 mm 0,0 UV-I 0 W/m 15,5 C 20,3 C 14,5 km/h (3 Bft) 97,87 %
08.07.2016 23:04 20,3 C 74 % 1014,8 hPa 0,0 l/m 8,2 km/h (2 Bft) S 182 0 min 0,000 mm 0,0 UV-I 0 W/m 15,5 C 19,6 C 11,3 km/h (2 Bft) 97,87 %
08.07.2016 23:06 20,4 C 74 % 1014,8 hPa 0,0 l/m 7,5 km/h (2 Bft) S 181 0 min 0,000 mm 0,0 UV-I 0 W/m 15,6 C 20,0 C 9,7 km/h (2 Bft) 100,00 %
08.07.2016 23:08 20,4 C 73 % 1014,8 hPa 0,0 l/m 6,1 km/h (2 Bft) S 171 0 min 0,000 mm 0,0 UV-I 0 W/m 15,4 C 20,4 C 8,0 km/h (2 Bft) 97,22 %
08.07.2016 23:10 20,5 C 73 % 1014,8 hPa 0,0 l/m 6,8 km/h (2 Bft) S-SW 196 0 min 0,000 mm 0,0 UV-I 0 W/m 15,5 C 20,3 C 9,7 km/h (2 Bft) 100,00 %
08.07.2016 23:12 20,5 C 73 % 1014,7 hPa 0,0 l/m 5,2 km/h (1 Bft) S-SW 198 0 min 0,000 mm 0,0 UV-I 0 W/m 15,5 C 20,5 C 8,0 km/h (2 Bft) 97,73 %
08.07.2016 23:14 20,5 C 73 % 1014,7 hPa 0,0 l/m 4,9 km/h (1 Bft) S-SO 167 0 min 0,000 mm 0,0 UV-I 0 W/m 15,5 C 20,5 C 6,4 km/h (2 Bft) 100,00 %
08.07.2016 23:16 20,4 C 73 % 1014,7 hPa 0,0 l/m 5,1 km/h (1 Bft) S-SW 194 0 min 0,000 mm 0,0 UV-I 0 W/m 15,4 C 20,4 C 8,0 km/h (2 Bft) 95,74 %
08.07.2016 23:18 20,4 C 73 % 1014,8 hPa 0,0 l/m 4,9 km/h (1 Bft) S 173 0 min 0,000 mm 0,0 UV-I 0 W/m 15,4 C 20,4 C 8,0 km/h (2 Bft) 97,14 %
08.07.2016 23:20 20,4 C 73 % 1014,8 hPa 0,0 l/m 4,8 km/h (1 Bft) S 174 0 min 0,000 mm 0,0 UV-I 0 W/m 15,4 C 20,4 C 8,0 km/h (2 Bft) 100,00 %
08.07.2016 23:22 20,3 C 74 % 1014,8 hPa 0,0 l/m 4,5 km/h (1 Bft) S 186 0 min 0,000 mm 0,0 UV-I 0 W/m 15,5 C 20,3 C 8,0 km/h (2 Bft) 100,00 %
08.07.2016 23:24 20,3 C 74 % 1014,9 hPa 0,0 l/m 4,0 km/h (1 Bft) S 187 0 min 0,000 mm 0,0 UV-I 0 W/m 15,5 C 20,3 C 6,4 km/h (2 Bft) 100,00 %
08.07.2016 23:26 20,2 C 74 % 1014,9 hPa 0,0 l/m 3,7 km/h (1 Bft) S 187 0 min 0,000 mm 0,0 UV-I 0 W/m 15,4 C 20,2 C 4,8 km/h (1 Bft) 97,50 %
08.07.2016 23:28 20,2 C 75 % 1014,9 hPa 0,0 l/m 2,6 km/h (1 Bft) S 177 0 min 0,000 mm 0,0 UV-I 0 W/m 15,6 C 20,2 C 4,8 km/h (1 Bft) 98,11 %
08.07.2016 23:30 20,1 C 75 % 1014,9 hPa 0,0 l/m 3,5 km/h (1 Bft) S 184 0 min 0,000 mm 0,0 UV-I 0 W/m 15,5 C 20,1 C 4,8 km/h (1 Bft) 100,00 %
08.07.2016 23:32 20,1 C 76 % 1014,9 hPa 0,0 l/m 3,5 km/h (1 Bft) S-SW 208 0 min 0,000 mm 0,0 UV-I 0 W/m 15,7 C 20,1 C 4,8 km/h (1 Bft) 98,00 %
08.07.2016 23:34 20,0 C 76 % 1014,9 hPa 0,0 l/m 4,6 km/h (1 Bft) SW 217 0 min 0,000 mm 0,0 UV-I 0 W/m 15,6 C 20,0 C 6,4 km/h (2 Bft) 97,37 %
08.07.2016 23:36 19,9 C 75 % 1014,9 hPa 0,0 l/m 6,5 km/h (2 Bft) S-SW 196 0 min 0,000 mm 0,0 UV-I 0 W/m 15,3 C 19,9 C 8,0 km/h (2 Bft) 100,00 %
08.07.2016 23:38 19,9 C 76 % 1014,9 hPa 0,0 l/m 5,2 km/h (1 Bft) S 188 0 min 0,000 mm 0,0 UV-I 0 W/m 15,5 C 19,9 C 8,0 km/h (2 Bft) 100,00 %
08.07.2016 23:40 19,9 C 75 % 1015,0 hPa 0,0 l/m 6,5 km/h (2 Bft) S-SW 205 0 min 0,000 mm 0,0 UV-I 0 W/m 15,3 C 19,9 C 9,7 km/h (2 Bft) 100,00 %
08.07.2016 23:42 19,9 C 75 % 1014,9 hPa 0,0 l/m 5,4 km/h (1 Bft) S-SW 208 0 min 0,000 mm 0,0 UV-I 0 W/m 15,3 C 19,9 C 8,0 km/h (2 Bft) 100,00 %
08.07.2016 23:44 19,9 C 76 % 1014,9 hPa 0,0 l/m 4,9 km/h (1 Bft) S 188 0 min 0,000 mm 0,0 UV-I 0 W/m 15,5 C 19,9 C 6,4 km/h (2 Bft) 96,00 %
08.07.2016 23:46 19,9 C 76 % 1014,9 hPa 0,0 l/m 5,1 km/h (1 Bft) S-SW 206 0 min 0,000 mm 0,0 UV-I 0 W/m 15,5 C 19,9 C 6,4 km/h (2 Bft) 97,37 %
08.07.2016 23:48 19,8 C 76 % 1015,0 hPa 0,0 l/m 6,2 km/h (2 Bft) S-SW 195 0 min 0,000 mm 0,0 UV-I 0 W/m 15,4 C 19,8 C 8,0 km/h (2 Bft) 100,00 %
08.07.2016 23:50 19,8 C 75 % 1014,9 hPa 0,0 l/m 3,8 km/h (1 Bft) S 173 0 min 0,000 mm 0,0 UV-I 0 W/m 15,2 C 19,8 C 8,0 km/h (2 Bft) 100,00 %
08.07.2016 23:52 19,8 C 75 % 1014,9 hPa 0,0 l/m 5,9 km/h (2 Bft) S-SW 196 0 min 0,000 mm 0,0 UV-I 0 W/m 15,2 C 19,8 C 8,0 km/h (2 Bft) 100,00 %
08.07.2016 23:54 19,8 C 76 % 1014,9 hPa 0,0 l/m 5,8 km/h (2 Bft) S 191 0 min 0,000 mm 0,0 UV-I 0 W/m 15,4 C 19,8 C 9,7 km/h (2 Bft) 100,00 %
08.07.2016 23:56 19,8 C 76 % 1014,9 hPa 0,0 l/m 6,1 km/h (2 Bft) S 185 0 min 0,000 mm 0,0 UV-I 0 W/m 15,4 C 19,8 C 9,7 km/h (2 Bft) 100,00 %
08.07.2016 23:58 19,8 C 76 % 1014,9 hPa 0,0 l/m 6,7 km/h (2 Bft) S-SO 158 0 min 0,000 mm 0,0 UV-I 0 W/m 15,4 C 19,7 C 11,3 km/h (2 Bft) 100,00 %
_ Min-Zeit 05:02 14:30 20:23 - 01:22 - - - - - - 05:02 05:02 01:22 19:56
Minimum _ 11,3 C 40 % 1013,7 hPa - 0,0 km/h (0 Bft) - - - - - - 9,7 C 11,3 C 0,0 km/h (0 Bft) 80,00 %
_ Max-Zeit 17:24 05:10 00:00 00:00 14:44 - - 14:13 14:02 12:58 12:46 19:38 17:24 11:56 00:00
Maximum _ 28,1 C 92 % 1018,7 hPa 0,0 l/m 9,9 km/h
W (2 Bft)
- - 3 min 0,584 mm 6,7 UV-I 987 W/m 16,6 C 28,1 C 16,1 km/h
N-NO (3 Bft)
100,00 %
Durchschnitt _ 19,8 C 68 % 1016,4 hPa #0,0 l/m 2,9 km/h (1 Bft) N-NO - #10:46 h #4,775 mm 3,5 UV-I 440 W/m 13,1 C 19,8 C 5,3 km/h (1 Bft) 98,60 %